SEY107 SBGL-LFPG

Flight info

Callsign SEY107
Flight time 10h 17m
Altitude 35000
Route UKENU UN857 FNR/N0435F270 UB623 CVS/N0468F370 UN873 IPERA N873 ODEGI/N0458F380 N873 GDV N858 VASTO UN858 AKUDA/N0376F240 UZ1 VFA UL14 ALAGU/N0461F380 DCT BABOV N873 DELOG DCT YURZI UL14 TEPRA UN867 MOKOR/N0434F340 UN741 NTS/N0410F300 UN741 KEPER
Aircraft A339/H-SADE1E2E3GHIJ3J5M1P2RWXY/LB2D1

Departure

Time 2026-05-09 00:25
Airport Rio Galeão – Tom Jobim International Airport (SBGL)

Arrival

Time 2026-05-09 10:42
Airport Charles de Gaulle International Airport (LFPG)
Time Latitude Longitude Altitude Speed Heading
2026-05-08 23:55 -22.81732 -43.24764 27 ft 0 kts 217°
2026-05-09 00:06 -22.81724 -43.24758 23 ft 4 kts 217°
2026-05-09 00:06 -22.81703 -43.24740 27 ft 4 kts 222°
2026-05-09 00:06 -22.81687 -43.24724 24 ft 2 kts 240°
2026-05-09 00:07 -22.81680 -43.24713 24 ft 2 kts 267°
2026-05-09 00:07 -22.81679 -43.24701 25 ft 2 kts 291°
2026-05-09 00:07 -22.81682 -43.24689 25 ft 2 kts 300°
2026-05-09 00:07 -22.81688 -43.24679 26 ft 0 kts 303°
2026-05-09 00:12 -22.81687 -43.24680 27 ft 1 kts 303°
2026-05-09 00:12 -22.81673 -43.24705 26 ft 6 kts 303°
2026-05-09 00:12 -22.81649 -43.24744 27 ft 7 kts 303°
2026-05-09 00:12 -22.81622 -43.24786 27 ft 7 kts 305°
2026-05-09 00:13 -22.81592 -43.24831 27 ft 8 kts 305°
2026-05-09 00:13 -22.81557 -43.24877 27 ft 8 kts 315°
2026-05-09 00:13 -22.81523 -43.24927 27 ft 8 kts 300°
2026-05-09 00:13 -22.81493 -43.24983 27 ft 9 kts 296°
2026-05-09 00:14 -22.81498 -43.25045 27 ft 8 kts 242°
2026-05-09 00:14 -22.81541 -43.25077 26 ft 8 kts 217°
2026-05-09 00:14 -22.81584 -43.25116 27 ft 8 kts 225°
2026-05-09 00:14 -22.81604 -43.25171 27 ft 8 kts 266°
2026-05-09 00:15 -22.81584 -43.25223 27 ft 8 kts 299°
2026-05-09 00:15 -22.81553 -43.25273 27 ft 8 kts 303°
2026-05-09 00:15 -22.81520 -43.25325 27 ft 9 kts 304°
2026-05-09 00:15 -22.81482 -43.25378 27 ft 9 kts 308°
2026-05-09 00:16 -22.81445 -43.25436 27 ft 10 kts 305°
2026-05-09 00:16 -22.81405 -43.25495 27 ft 10 kts 306°
2026-05-09 00:16 -22.81364 -43.25556 27 ft 10 kts 305°
2026-05-09 00:16 -22.81322 -43.25620 27 ft 11 kts 306°
2026-05-09 00:17 -22.81279 -43.25685 28 ft 10 kts 306°
2026-05-09 00:17 -22.81239 -43.25745 27 ft 11 kts 306°
2026-05-09 00:17 -22.81194 -43.25813 27 ft 11 kts 306°
2026-05-09 00:17 -22.81148 -43.25883 27 ft 12 kts 306°
2026-05-09 00:18 -22.81084 -43.25919 28 ft 10 kts
2026-05-09 00:18 -22.81031 -43.25887 28 ft 9 kts 33°
2026-05-09 00:18 -22.80983 -43.25850 28 ft 9 kts 35°
2026-05-09 00:18 -22.80934 -43.25813 29 ft 9 kts 36°
2026-05-09 00:19 -22.80886 -43.25776 29 ft 9 kts 35°
2026-05-09 00:19 -22.80838 -43.25740 30 ft 8 kts 34°
2026-05-09 00:19 -22.80805 -43.25715 32 ft 4 kts 36°
2026-05-09 00:19 -22.80788 -43.25702 32 ft 4 kts 37°
2026-05-09 00:20 -22.80760 -43.25678 31 ft 6 kts 37°
2026-05-09 00:20 -22.80703 -43.25634 31 ft 12 kts 35°
2026-05-09 00:20 -22.80630 -43.25579 31 ft 13 kts 35°
2026-05-09 00:20 -22.80555 -43.25537 36 ft 8 kts 10°
2026-05-09 00:21 -22.80515 -43.25552 36 ft 6 kts 331°
2026-05-09 00:21 -22.80478 -43.25574 36 ft 6 kts 331°
2026-05-09 00:21 -22.80434 -43.25600 35 ft 8 kts 331°
2026-05-09 00:21 -22.80374 -43.25608 34 ft 10 kts 13°
2026-05-09 00:22 -22.80338 -43.25584 32 ft 0 kts 34°
2026-05-09 00:22 -22.80337 -43.25584 32 ft 1 kts 34°
2026-05-09 00:22 -22.80323 -43.25573 32 ft 0 kts 35°
2026-05-09 00:23 -22.80319 -43.25570 32 ft 3 kts 35°
2026-05-09 00:23 -22.80290 -43.25547 31 ft 7 kts 38°
2026-05-09 00:23 -22.80247 -43.25509 31 ft 9 kts 38°
2026-05-09 00:24 -22.80196 -43.25465 31 ft 10 kts 39°
2026-05-09 00:24 -22.80161 -43.25401 31 ft 12 kts 71°
2026-05-09 00:24 -22.80096 -43.25146 32 ft 66 kts 74°
2026-05-09 00:24 -22.79909 -43.24434 38 ft 130 kts 74°
2026-05-09 00:25 -22.79615 -43.23280 48 ft 180 kts 75°
2026-05-09 00:25 -22.79280 -43.21966 635 ft 178 kts 75°
2026-05-09 00:25 -22.78956 -43.20673 1252 ft 183 kts 75°
2026-05-09 00:25 -22.78665 -43.19325 1928 ft 183 kts 75°
2026-05-09 00:26 -22.78378 -43.17927 2363 ft 198 kts 75°
2026-05-09 00:26 -22.78063 -43.16390 2608 ft 219 kts 75°
2026-05-09 00:26 -22.77711 -43.14702 2807 ft 240 kts 74°
2026-05-09 00:26 -22.77325 -43.12868 3000 ft 259 kts 74°
2026-05-09 00:27 -22.76914 -43.10931 3385 ft 265 kts 74°
2026-05-09 00:27 -22.76498 -43.08965 3837 ft 270 kts 74°
2026-05-09 00:27 -22.76076 -43.06974 4356 ft 272 kts 74°
2026-05-09 00:27 -22.75649 -43.04955 4841 ft 276 kts 74°
2026-05-09 00:28 -22.75222 -43.02945 5338 ft 279 kts 74°
2026-05-09 00:28 -22.74631 -43.00916 5793 ft 278 kts 58°
2026-05-09 00:28 -22.73450 -42.99325 6323 ft 274 kts 39°
2026-05-09 00:28 -22.71977 -42.98010 6808 ft 275 kts 34°
2026-05-09 00:29 -22.70439 -42.96767 7331 ft 276 kts 33°
2026-05-09 00:29 -22.68883 -42.95535 7832 ft 278 kts 33°
2026-05-09 00:29 -22.67313 -42.94298 8332 ft 279 kts 33°
2026-05-09 00:29 -22.65735 -42.93056 8837 ft 281 kts 33°
2026-05-09 00:30 -22.64145 -42.91804 9350 ft 283 kts 34°
2026-05-09 00:30 -22.62546 -42.90546 9877 ft 285 kts 34°
2026-05-09 00:30 -22.60890 -42.89352 10234 ft 290 kts 27°
2026-05-09 00:30 -22.60376 -42.89072 10265 ft 294 kts 22°
2026-05-09 00:31 -22.58763 -42.88526 10378 ft 304 kts
2026-05-09 00:31 -22.56607 -42.88349 10512 ft 318 kts 359°
2026-05-09 00:31 -22.54727 -42.88491 10636 ft 328 kts 353°
2026-05-09 00:31 -22.53697 -42.88635 10791 ft 331 kts 352°
2026-05-09 00:32 -22.51411 -42.89025 11207 ft 334 kts 351°
2026-05-09 00:32 -22.49110 -42.89444 11663 ft 336 kts 350°
2026-05-09 00:32 -22.46784 -42.89859 12063 ft 339 kts 351°
2026-05-09 00:32 -22.44466 -42.90261 12583 ft 339 kts 351°
2026-05-09 00:33 -22.42119 -42.90657 13007 ft 342 kts 351°
2026-05-09 00:33 -22.39757 -42.91024 13450 ft 344 kts 354°
2026-05-09 00:33 -22.37400 -42.91241 13908 ft 345 kts 354°
2026-05-09 00:33 -22.34994 -42.91487 14240 ft 349 kts 355°
2026-05-09 00:34 -22.32570 -42.91767 14653 ft 351 kts 353°
2026-05-09 00:34 -22.30137 -42.92138 15032 ft 354 kts 351°
2026-05-09 00:34 -22.27690 -42.92584 15390 ft 357 kts 350°
2026-05-09 00:34 -22.25238 -42.93070 15787 ft 359 kts 349°
2026-05-09 00:35 -22.22774 -42.93573 16207 ft 360 kts 349°
2026-05-09 00:35 -22.20331 -42.94071 16548 ft 363 kts 349°
2026-05-09 00:35 -22.17799 -42.94191 16868 ft 367 kts
2026-05-09 00:35 -22.15328 -42.93487 17051 ft 369 kts 23°
2026-05-09 00:36 -22.13153 -42.92014 17084 ft 372 kts 40°
2026-05-09 00:36 -22.11368 -42.89978 17101 ft 375 kts 47°
2026-05-09 00:36 -22.09670 -42.87820 17437 ft 377 kts 48°
2026-05-09 00:36 -22.07967 -42.85669 17844 ft 378 kts 47°
2026-05-09 00:37 -22.06226 -42.83530 18195 ft 381 kts 47°
2026-05-09 00:37 -22.04454 -42.81398 18505 ft 383 kts 46°
2026-05-09 00:37 -22.02655 -42.79256 18828 ft 385 kts 46°
2026-05-09 00:37 -22.00846 -42.77113 19164 ft 387 kts 46°
2026-05-09 00:38 -21.99028 -42.74964 19462 ft 390 kts 46°
2026-05-09 00:38 -21.97220 -42.72828 19794 ft 392 kts 46°
2026-05-09 00:38 -21.95379 -42.70652 20120 ft 394 kts 46°
2026-05-09 00:38 -21.93523 -42.68460 20430 ft 396 kts 46°
2026-05-09 00:39 -21.91656 -42.66255 20775 ft 399 kts 46°
2026-05-09 00:39 -21.89779 -42.64039 21087 ft 401 kts 46°
2026-05-09 00:39 -21.87897 -42.61817 21420 ft 403 kts 46°
2026-05-09 00:39 -21.86000 -42.59579 21740 ft 405 kts 46°
2026-05-09 00:40 -21.84092 -42.57329 22080 ft 408 kts 46°
2026-05-09 00:40 -21.82173 -42.55067 22416 ft 410 kts 46°
2026-05-09 00:40 -21.80241 -42.52792 22735 ft 412 kts 46°
2026-05-09 00:41 -21.76473 -42.48353 23389 ft 417 kts 46°
2026-05-09 00:41 -21.74533 -42.46070 23713 ft 419 kts 46°
2026-05-09 00:41 -21.72561 -42.43752 23982 ft 421 kts 46°
2026-05-09 00:41 -21.70576 -42.41418 24257 ft 424 kts 46°
2026-05-09 00:42 -21.68578 -42.39069 24536 ft 427 kts 46°
2026-05-09 00:42 -21.66569 -42.36708 24815 ft 429 kts 46°
2026-05-09 00:42 -21.64547 -42.34334 25078 ft 432 kts 46°
2026-05-09 00:42 -21.62508 -42.31939 25357 ft 434 kts 46°
2026-05-09 00:43 -21.60463 -42.29540 25632 ft 437 kts 46°
2026-05-09 00:43 -21.58405 -42.27124 25906 ft 439 kts 46°
2026-05-09 00:43 -21.56328 -42.24689 26163 ft 442 kts 46°
2026-05-09 00:43 -21.54273 -42.22281 26409 ft 445 kts 46°
2026-05-09 00:44 -21.52176 -42.19824 26700 ft 447 kts 46°
2026-05-09 00:44 -21.50072 -42.17361 26958 ft 450 kts 46°
2026-05-09 00:44 -21.47946 -42.14874 27225 ft 452 kts 46°
2026-05-09 00:44 -21.45812 -42.12378 27471 ft 455 kts 46°
2026-05-09 00:45 -21.43668 -42.09872 27736 ft 457 kts 46°
2026-05-09 00:45 -21.41502 -42.07339 28009 ft 460 kts 46°
2026-05-09 00:45 -21.40061 -42.05656 28181 ft 461 kts 46°
2026-05-09 00:45 -21.37171 -42.02282 28529 ft 465 kts 46°
2026-05-09 00:46 -21.34970 -41.99713 28773 ft 467 kts 46°
2026-05-09 00:46 -21.33503 -41.98001 28943 ft 469 kts 46°
2026-05-09 00:46 -21.31288 -41.95419 29212 ft 471 kts 46°
2026-05-09 00:46 -21.28330 -41.91972 29559 ft 475 kts 46°
2026-05-09 00:47 -21.26839 -41.90235 29743 ft 476 kts 46°
2026-05-09 00:47 -21.24577 -41.87602 29991 ft 479 kts 46°
2026-05-09 00:47 -21.21503 -41.84178 30290 ft 481 kts 41°
2026-05-09 00:47 -21.19769 -41.82600 30464 ft 481 kts 36°
2026-05-09 00:48 -21.17018 -41.80550 30706 ft 482 kts 30°
2026-05-09 00:48 -21.14116 -41.78816 30925 ft 483 kts 26°
2026-05-09 00:48 -21.11155 -41.77092 31170 ft 485 kts 27°
2026-05-09 00:48 -21.08178 -41.75337 31425 ft 487 kts 27°
2026-05-09 00:49 -21.05235 -41.73594 31648 ft 489 kts 27°
2026-05-09 00:49 -21.02246 -41.71824 31887 ft 491 kts 27°
2026-05-09 00:49 -20.99246 -41.70047 32143 ft 492 kts 27°
2026-05-09 00:49 -20.96242 -41.68269 32378 ft 494 kts 27°
2026-05-09 00:50 -20.93220 -41.66483 32580 ft 496 kts 27°
2026-05-09 00:50 -20.90188 -41.64691 32785 ft 497 kts 27°
2026-05-09 00:50 -20.87180 -41.62915 32949 ft 499 kts 27°
2026-05-09 00:50 -20.84138 -41.61119 33158 ft 499 kts 27°
2026-05-09 00:51 -20.81089 -41.59320 33284 ft 501 kts 27°
2026-05-09 00:51 -20.78029 -41.57515 33422 ft 502 kts 27°
2026-05-09 00:51 -20.74964 -41.55709 33567 ft 502 kts 27°
2026-05-09 00:51 -20.71938 -41.53926 33696 ft 503 kts 27°
2026-05-09 00:52 -20.68853 -41.52109 33875 ft 502 kts 27°
2026-05-09 00:52 -20.65815 -41.50321 34027 ft 502 kts 27°
2026-05-09 00:52 -20.62735 -41.48510 34197 ft 501 kts 27°
2026-05-09 00:52 -20.59709 -41.46730 34338 ft 501 kts 27°
2026-05-09 00:53 -20.56647 -41.44930 34471 ft 501 kts 27°
2026-05-09 00:53 -20.53589 -41.43134 34624 ft 500 kts 27°
2026-05-09 00:53 -20.50534 -41.41340 34749 ft 500 kts 27°
2026-05-09 00:53 -20.47520 -41.39569 34889 ft 500 kts 27°
2026-05-09 00:54 -20.44469 -41.37764 35016 ft 500 kts 27°
2026-05-09 00:54 -20.41435 -41.35965 35122 ft 500 kts 27°
2026-05-09 00:54 -20.35347 -41.32360 35129 ft 499 kts 27°
2026-05-09 00:55 -20.29278 -41.28773 35133 ft 499 kts 27°
2026-05-09 00:55 -20.23202 -41.25188 35135 ft 498 kts 27°
2026-05-09 00:56 -20.17321 -41.21720 35135 ft 498 kts 27°
2026-05-09 00:56 -20.11245 -41.18137 35129 ft 498 kts 27°
2026-05-09 00:57 -20.05178 -41.14568 35121 ft 498 kts 27°
2026-05-09 00:57 -19.99149 -41.11023 35125 ft 498 kts 27°
2026-05-09 00:58 -19.93930 -41.07957 35119 ft 498 kts 27°
2026-05-09 00:58 -19.87853 -41.04390 35122 ft 499 kts 27°
2026-05-09 00:59 -19.85055 -41.02749 35124 ft 499 kts 27°
2026-05-09 00:59 -19.79162 -40.99312 35117 ft 499 kts 27°
2026-05-09 01:00 -19.73052 -40.95758 35119 ft 499 kts 27°
2026-05-09 01:00 -19.66982 -40.92227 35114 ft 499 kts 27°
2026-05-09 01:01 -19.60871 -40.88673 35114 ft 499 kts 27°
2026-05-09 01:01 -19.54767 -40.85131 35105 ft 499 kts 27°
2026-05-09 01:02 -19.48693 -40.81618 35112 ft 499 kts 27°
2026-05-09 01:02 -19.42624 -40.78111 35110 ft 499 kts 27°
2026-05-09 01:03 -19.36498 -40.74572 35107 ft 499 kts 27°
2026-05-09 01:03 -19.30427 -40.71069 35112 ft 499 kts 27°
2026-05-09 01:04 -19.24308 -40.67540 35110 ft 499 kts 27°
2026-05-09 01:04 -19.18207 -40.64024 35109 ft 499 kts 27°
2026-05-09 01:05 -19.12135 -40.60531 35113 ft 499 kts 27°
2026-05-09 01:06 -19.02964 -40.55256 35109 ft 499 kts 27°
2026-05-09 01:06 -18.96862 -40.51751 35108 ft 499 kts 27°
2026-05-09 01:07 -18.90752 -40.48243 35103 ft 499 kts 27°
2026-05-09 01:07 -18.84691 -40.44767 35104 ft 499 kts 27°
2026-05-09 01:08 -18.78581 -40.41266 35105 ft 499 kts 27°
2026-05-09 01:08 -18.72471 -40.37769 35104 ft 499 kts 27°
2026-05-09 01:09 -18.66393 -40.34291 35099 ft 499 kts 27°
2026-05-09 01:09 -18.60450 -40.30895 35103 ft 499 kts 27°
2026-05-09 01:10 -18.54375 -40.27425 35100 ft 499 kts 27°
2026-05-09 01:10 -18.48262 -40.23937 35099 ft 499 kts 27°
2026-05-09 01:11 -18.42148 -40.20450 35099 ft 499 kts 27°
2026-05-09 01:11 -18.36070 -40.16988 35100 ft 499 kts 27°
2026-05-09 01:12 -18.29950 -40.13504 35098 ft 499 kts 27°
2026-05-09 01:12 -18.23852 -40.10036 35099 ft 499 kts 27°
2026-05-09 01:13 -18.17726 -40.06554 35097 ft 500 kts 27°
2026-05-09 01:13 -18.11629 -40.03092 35094 ft 500 kts 27°
2026-05-09 01:14 -18.05473 -39.99598 35097 ft 500 kts 27°
2026-05-09 01:14 -17.99389 -39.96147 35097 ft 500 kts 27°
2026-05-09 01:15 -17.93266 -39.92650 35097 ft 500 kts 27°
2026-05-09 01:15 -17.87182 -39.89170 35100 ft 500 kts 27°
2026-05-09 01:16 -17.81046 -39.85668 35096 ft 500 kts 27°
2026-05-09 01:16 -17.74916 -39.82173 35095 ft 501 kts 27°
2026-05-09 01:17 -17.65732 -39.76942 35096 ft 501 kts 28°
2026-05-09 01:17 -17.59600 -39.73452 35095 ft 501 kts 28°
2026-05-09 01:18 -17.53497 -39.69982 35097 ft 501 kts 28°
2026-05-09 01:18 -17.47340 -39.66483 35095 ft 502 kts 28°
2026-05-09 01:19 -17.41221 -39.63010 35091 ft 502 kts 28°
2026-05-09 01:19 -17.35075 -39.59523 35093 ft 502 kts 28°
2026-05-09 01:20 -17.28910 -39.56028 35096 ft 502 kts 28°
2026-05-09 01:20 -17.22792 -39.52563 35095 ft 503 kts 28°
2026-05-09 01:21 -17.16627 -39.49074 35093 ft 503 kts 28°
2026-05-09 01:21 -17.10455 -39.45583 35094 ft 503 kts 28°
2026-05-09 01:22 -17.04290 -39.42099 35093 ft 504 kts 28°
2026-05-09 01:22 -16.98162 -39.38638 35093 ft 504 kts 28°
2026-05-09 01:23 -16.91992 -39.35157 35096 ft 504 kts 28°
2026-05-09 01:23 -16.85813 -39.31673 35091 ft 504 kts 28°
2026-05-09 01:24 -16.79666 -39.28209 35092 ft 504 kts 28°
2026-05-09 01:24 -16.73487 -39.24730 35090 ft 504 kts 28°
2026-05-09 01:25 -16.67315 -39.21257 35081 ft 504 kts 28°
2026-05-09 01:25 -16.61169 -39.17802 35070 ft 504 kts 28°
2026-05-09 01:26 -16.54989 -39.14330 35070 ft 504 kts 28°
2026-05-09 01:26 -16.48804 -39.10858 35074 ft 504 kts 28°
2026-05-09 01:27 -16.42653 -39.07414 35089 ft 503 kts 27°
2026-05-09 01:27 -16.36396 -39.04094 35083 ft 503 kts 26°
2026-05-09 01:28 -16.30168 -39.00826 35082 ft 504 kts 26°
2026-05-09 01:28 -16.23910 -38.97520 35072 ft 504 kts 26°
2026-05-09 01:29 -16.17672 -38.94136 35069 ft 504 kts 28°
2026-05-09 01:29 -16.11500 -38.90716 35069 ft 505 kts 28°
2026-05-09 01:30 -16.05309 -38.87306 35068 ft 505 kts 27°
2026-05-09 01:30 -15.99091 -38.83892 35083 ft 505 kts 27°
2026-05-09 01:31 -15.92866 -38.80478 35076 ft 505 kts 27°
2026-05-09 01:31 -15.86669 -38.77082 35088 ft 505 kts 27°
2026-05-09 01:32 -15.80448 -38.73675 35082 ft 505 kts 27°
2026-05-09 01:32 -15.74217 -38.70265 35076 ft 505 kts 27°
2026-05-09 01:33 -15.68021 -38.66876 35060 ft 505 kts 27°
2026-05-09 01:33 -15.61778 -38.63463 35058 ft 506 kts 27°
2026-05-09 01:34 -15.55580 -38.60078 35071 ft 506 kts 27°
2026-05-09 01:34 -15.50395 -38.57248 35056 ft 506 kts 27°
2026-05-09 01:35 -15.44157 -38.53845 35069 ft 506 kts 27°
2026-05-09 01:35 -15.37947 -38.50460 35064 ft 506 kts 27°
2026-05-09 01:36 -15.31708 -38.47060 35069 ft 506 kts 27°
2026-05-09 01:36 -15.25465 -38.43662 35065 ft 506 kts 27°
2026-05-09 01:37 -15.19267 -38.40290 35059 ft 506 kts 27°
2026-05-09 01:37 -15.13025 -38.36897 35065 ft 506 kts 27°
2026-05-09 01:38 -15.06827 -38.33529 35068 ft 505 kts 27°
2026-05-09 01:38 -15.00663 -38.30182 35066 ft 505 kts 27°
2026-05-09 01:39 -14.94424 -38.26798 35061 ft 505 kts 27°
2026-05-09 01:39 -14.88217 -38.23434 35059 ft 505 kts 27°
2026-05-09 01:40 -14.81980 -38.20055 35062 ft 505 kts 27°
2026-05-09 01:40 -14.75744 -38.16679 35053 ft 505 kts 27°
2026-05-09 01:41 -14.69551 -38.13329 35060 ft 505 kts 27°
2026-05-09 01:41 -14.63325 -38.09963 35064 ft 505 kts 27°
2026-05-09 01:42 -14.57119 -38.06610 35059 ft 504 kts 27°
2026-05-09 01:42 -14.50891 -38.03247 35052 ft 504 kts 27°
2026-05-09 01:43 -14.44657 -37.99883 35055 ft 504 kts 27°
2026-05-09 01:43 -14.38443 -37.96532 35056 ft 504 kts 27°
2026-05-09 01:44 -14.32264 -37.93203 35054 ft 503 kts 27°
2026-05-09 01:44 -14.26057 -37.89859 35054 ft 503 kts 27°
2026-05-09 01:45 -14.19839 -37.86512 35050 ft 503 kts 27°
2026-05-09 01:45 -14.13671 -37.83195 35053 ft 502 kts 27°
2026-05-09 01:46 -14.07474 -37.79863 35044 ft 502 kts 26°
2026-05-09 01:46 -14.01277 -37.76534 35048 ft 502 kts 26°
2026-05-09 01:47 -13.95104 -37.73220 35048 ft 501 kts 26°
2026-05-09 01:47 -13.88919 -37.69901 35046 ft 501 kts 26°
2026-05-09 01:48 -13.82762 -37.66599 35046 ft 501 kts 26°
2026-05-09 01:48 -13.76573 -37.63282 35048 ft 500 kts 26°
2026-05-09 01:49 -13.70409 -37.59980 35039 ft 500 kts 26°
2026-05-09 01:49 -13.64240 -37.56678 35042 ft 499 kts 26°
2026-05-09 01:50 -13.58101 -37.53394 35041 ft 499 kts 26°
2026-05-09 01:50 -13.51942 -37.50100 35037 ft 498 kts 26°
2026-05-09 01:51 -13.45778 -37.46806 35036 ft 498 kts 26°
2026-05-09 01:51 -13.39652 -37.43535 35036 ft 498 kts 26°
2026-05-09 01:52 -13.33499 -37.40251 35035 ft 497 kts 26°
2026-05-09 01:52 -13.27388 -37.36991 35036 ft 497 kts 25°
2026-05-09 01:53 -13.21240 -37.33713 35035 ft 497 kts 25°
2026-05-09 01:53 -13.15088 -37.30436 35033 ft 496 kts 25°
2026-05-09 01:54 -13.08983 -37.27184 35037 ft 496 kts 25°
2026-05-09 01:54 -13.02853 -37.23921 35035 ft 495 kts 25°
2026-05-09 01:55 -12.96756 -37.20679 35034 ft 495 kts 25°
2026-05-09 01:55 -12.90629 -37.17422 35034 ft 495 kts 25°
2026-05-09 01:56 -12.84549 -37.14192 35033 ft 494 kts 25°
2026-05-09 01:56 -12.78442 -37.10949 35034 ft 494 kts 25°
2026-05-09 01:57 -12.72313 -37.07697 35026 ft 494 kts 25°
2026-05-09 01:57 -12.66244 -37.04477 35021 ft 493 kts 25°
2026-05-09 01:58 -12.60142 -37.01243 35027 ft 493 kts 25°
2026-05-09 01:58 -12.54084 -36.98032 35029 ft 492 kts 25°
2026-05-09 01:59 -12.47986 -36.94803 35027 ft 491 kts 25°
2026-05-09 01:59 -12.41943 -36.91605 35028 ft 491 kts 25°
2026-05-09 02:00 -12.35878 -36.88396 35027 ft 490 kts 24°
2026-05-09 02:00 -12.29820 -36.85194 35027 ft 490 kts 24°
2026-05-09 02:01 -12.23761 -36.81992 35027 ft 489 kts 24°
2026-05-09 02:01 -12.17752 -36.78818 35024 ft 489 kts 24°
2026-05-09 02:02 -12.11704 -36.75626 35023 ft 488 kts 24°
2026-05-09 02:02 -12.05689 -36.72452 35022 ft 488 kts 24°
2026-05-09 02:03 -11.99649 -36.69267 35018 ft 487 kts 24°
2026-05-09 02:03 -11.93613 -36.66086 35019 ft 487 kts 24°
2026-05-09 02:04 -11.87610 -36.62923 35019 ft 487 kts 24°
2026-05-09 02:04 -11.81569 -36.59742 35019 ft 487 kts 24°
2026-05-09 02:05 -11.75580 -36.56591 35019 ft 486 kts 24°
2026-05-09 02:05 -11.69545 -36.53416 35020 ft 486 kts 24°
2026-05-09 02:06 -11.63527 -36.50252 35016 ft 486 kts 24°
2026-05-09 02:07 -11.54527 -36.45523 35017 ft 486 kts 24°
2026-05-09 02:07 -11.48679 -36.42453 35020 ft 486 kts 24°
2026-05-09 02:08 -11.42641 -36.39283 35017 ft 486 kts 24°
2026-05-09 02:08 -11.36614 -36.36122 35017 ft 486 kts 24°
2026-05-09 02:09 -11.30626 -36.32982 35018 ft 486 kts 24°
2026-05-09 02:09 -11.24589 -36.29817 35015 ft 486 kts 24°
2026-05-09 02:10 -11.18598 -36.26679 35017 ft 487 kts 24°
2026-05-09 02:10 -11.12566 -36.23521 35012 ft 487 kts 24°
2026-05-09 02:11 -11.06669 -36.20151 35012 ft 488 kts 28°
2026-05-09 02:11 -11.00812 -36.16640 35015 ft 488 kts 27°
2026-05-09 02:12 -10.94952 -36.13183 35016 ft 488 kts 27°
2026-05-09 02:12 -10.89036 -36.09718 35013 ft 488 kts 27°
2026-05-09 02:13 -10.83132 -36.06264 35015 ft 489 kts 27°
2026-05-09 02:13 -10.77249 -36.02824 35014 ft 489 kts 27°
2026-05-09 02:14 -10.71345 -35.99372 35015 ft 489 kts 27°
2026-05-09 02:14 -10.65476 -35.95941 35014 ft 489 kts 27°
2026-05-09 02:15 -10.59565 -35.92489 35016 ft 489 kts 27°
2026-05-09 02:15 -10.53654 -35.89037 35016 ft 489 kts 27°
2026-05-09 02:16 -10.47773 -35.85605 35013 ft 489 kts 27°
2026-05-09 02:16 -10.41844 -35.82147 35016 ft 489 kts 27°
2026-05-09 02:17 -10.35978 -35.78726 35013 ft 489 kts 27°
2026-05-09 02:17 -10.30058 -35.75276 35018 ft 489 kts 27°
2026-05-09 02:18 -10.24153 -35.71835 35017 ft 489 kts 27°
2026-05-09 02:18 -10.18275 -35.68412 35010 ft 489 kts 26°
2026-05-09 02:19 -10.12388 -35.64985 35009 ft 489 kts 26°
2026-05-09 02:19 -10.06475 -35.61545 35012 ft 488 kts 26°
2026-05-09 02:20 -10.00605 -35.58131 35024 ft 488 kts 26°
2026-05-09 02:20 -9.94731 -35.54716 35021 ft 487 kts 26°
2026-05-09 02:21 -9.88836 -35.51290 35021 ft 487 kts 26°
2026-05-09 02:21 -9.82975 -35.47886 35008 ft 487 kts 26°
2026-05-09 02:22 -9.78072 -35.45039 35025 ft 487 kts 26°
2026-05-09 02:22 -9.72186 -35.41623 35020 ft 486 kts 26°
2026-05-09 02:23 -9.66335 -35.38228 35002 ft 486 kts 26°
2026-05-09 02:23 -9.60438 -35.34808 34997 ft 486 kts 26°
2026-05-09 02:24 -9.54599 -35.31424 35001 ft 485 kts 26°
2026-05-09 02:24 -9.48739 -35.28028 35017 ft 485 kts 26°
2026-05-09 02:25 -9.42891 -35.24641 35017 ft 484 kts 26°
2026-05-09 02:25 -9.37041 -35.21254 35021 ft 484 kts 26°
2026-05-09 02:26 -9.31219 -35.17884 35014 ft 483 kts 26°
2026-05-09 02:26 -9.25371 -35.14501 35005 ft 483 kts 26°
2026-05-09 02:27 -9.19535 -35.11125 34994 ft 483 kts 26°
2026-05-09 02:27 -9.13693 -35.07748 34987 ft 483 kts 26°
2026-05-09 02:28 -9.07876 -35.04387 35001 ft 482 kts 26°
2026-05-09 02:28 -9.01841 -35.01480 34997 ft 478 kts 19°
2026-05-09 02:29 -8.95699 -34.98949 34999 ft 478 kts 19°
2026-05-09 02:29 -8.89537 -34.96382 34993 ft 479 kts 19°
2026-05-09 02:30 -8.83372 -34.93813 34998 ft 479 kts 19°
2026-05-09 02:30 -8.77199 -34.91243 34997 ft 479 kts 19°
2026-05-09 02:31 -8.71067 -34.88692 34992 ft 479 kts 19°
2026-05-09 02:31 -8.64893 -34.86124 34995 ft 479 kts 19°
2026-05-09 02:32 -8.58710 -34.83553 34996 ft 479 kts 19°
2026-05-09 02:32 -8.52585 -34.81008 34998 ft 479 kts 19°
2026-05-09 02:33 -8.46411 -34.78443 34997 ft 479 kts 19°
2026-05-09 02:33 -8.40255 -34.75886 34999 ft 479 kts 19°
2026-05-09 02:34 -8.34117 -34.73338 34999 ft 478 kts 19°
2026-05-09 02:34 -8.27949 -34.70778 34998 ft 478 kts 19°
2026-05-09 02:35 -8.21814 -34.68232 34993 ft 478 kts 19°
2026-05-09 02:35 -8.15640 -34.65672 34992 ft 478 kts 19°
2026-05-09 02:36 -8.09716 -34.62847 34989 ft 480 kts 25°
2026-05-09 02:36 -8.03816 -34.59631 34988 ft 480 kts 25°
2026-05-09 02:37 -7.97957 -34.56463 34987 ft 480 kts 25°
2026-05-09 02:37 -7.92040 -34.53266 34990 ft 480 kts 25°
2026-05-09 02:38 -7.86170 -34.50095 34983 ft 480 kts 25°
2026-05-09 02:38 -7.80294 -34.46921 34984 ft 480 kts 25°
2026-05-09 02:39 -7.74385 -34.43736 34986 ft 480 kts 25°
2026-05-09 02:39 -7.68475 -34.40661 34981 ft 479 kts 24°
2026-05-09 02:40 -7.62527 -34.37586 34981 ft 480 kts 25°
2026-05-09 02:40 -7.56585 -34.34499 34981 ft 480 kts 25°
2026-05-09 02:41 -7.50684 -34.31430 34983 ft 480 kts 25°
2026-05-09 02:41 -7.44742 -34.28340 34979 ft 480 kts 25°
2026-05-09 02:42 -7.38792 -34.25247 34981 ft 480 kts 25°
2026-05-09 02:42 -7.32887 -34.22179 34978 ft 480 kts 25°
2026-05-09 02:43 -7.26945 -34.19093 34975 ft 480 kts 25°
2026-05-09 02:43 -7.20991 -34.16001 34975 ft 480 kts 25°
2026-05-09 02:44 -7.15083 -34.12934 34976 ft 480 kts 25°
2026-05-09 02:44 -7.09136 -34.09847 34977 ft 480 kts 25°
2026-05-09 02:45 -7.03188 -34.06761 34975 ft 480 kts 25°
2026-05-09 02:45 -6.97279 -34.03696 34973 ft 480 kts 25°
2026-05-09 02:46 -6.91320 -34.00606 34974 ft 480 kts 25°
2026-05-09 02:46 -6.85410 -33.97542 34976 ft 480 kts 25°
2026-05-09 02:47 -6.79453 -33.94455 34974 ft 480 kts 25°
2026-05-09 02:47 -6.73536 -33.91389 34972 ft 480 kts 25°
2026-05-09 02:48 -6.67563 -33.88296 34970 ft 480 kts 25°
2026-05-09 02:48 -6.61648 -33.85233 34968 ft 480 kts 25°
2026-05-09 02:49 -6.55733 -33.82171 34969 ft 480 kts 25°
2026-05-09 02:49 -6.49787 -33.79094 34968 ft 480 kts 25°
2026-05-09 02:50 -6.43834 -33.76014 34970 ft 480 kts 25°
2026-05-09 02:50 -6.37930 -33.72960 34967 ft 479 kts 25°
2026-05-09 02:51 -6.31967 -33.69877 34968 ft 479 kts 25°
2026-05-09 02:51 -6.26074 -33.66830 34968 ft 479 kts 25°
2026-05-09 02:52 -6.20135 -33.63761 34968 ft 479 kts 25°
2026-05-09 02:52 -6.14190 -33.60689 34966 ft 479 kts 25°
2026-05-09 02:53 -6.08295 -33.57644 34965 ft 479 kts 25°
2026-05-09 02:53 -6.02356 -33.54576 34969 ft 478 kts 25°
2026-05-09 02:54 -5.96466 -33.51535 34966 ft 478 kts 25°
2026-05-09 02:54 -5.90554 -33.48483 34967 ft 478 kts 25°
2026-05-09 02:55 -5.84613 -33.45417 34961 ft 478 kts 25°
2026-05-09 02:55 -5.78719 -33.42376 34962 ft 478 kts 25°
2026-05-09 02:56 -5.72792 -33.39319 34962 ft 478 kts 25°
2026-05-09 02:56 -5.66909 -33.36285 34960 ft 478 kts 25°
2026-05-09 02:57 -5.60979 -33.33227 34959 ft 478 kts 25°
2026-05-09 02:57 -5.55096 -33.30195 34959 ft 477 kts 25°
2026-05-09 02:58 -5.49172 -33.27142 34963 ft 477 kts 25°
2026-05-09 02:58 -5.43283 -33.24108 34961 ft 477 kts 25°
2026-05-09 02:59 -5.37365 -33.21060 34959 ft 477 kts 25°
2026-05-09 02:59 -5.31472 -33.18025 34960 ft 477 kts 25°
2026-05-09 03:00 -5.25542 -33.14972 34958 ft 477 kts 25°
2026-05-09 03:00 -5.19678 -33.11953 34959 ft 476 kts 25°
2026-05-09 03:01 -5.13769 -33.08912 34961 ft 476 kts 25°
2026-05-09 03:01 -5.07888 -33.05886 34961 ft 476 kts 25°
2026-05-09 03:02 -5.01988 -33.02851 34957 ft 476 kts 25°
2026-05-09 03:02 -4.96111 -32.99828 34956 ft 476 kts 25°
2026-05-09 03:03 -4.90208 -32.96793 34958 ft 476 kts 25°
2026-05-09 03:03 -4.84317 -32.93765 34959 ft 475 kts 25°
2026-05-09 03:04 -4.78448 -32.90748 34954 ft 475 kts 26°
2026-05-09 03:04 -4.72546 -32.87715 34958 ft 475 kts 26°
2026-05-09 03:05 -4.66830 -32.84778 34956 ft 475 kts 26°
2026-05-09 03:05 -4.60936 -32.81749 34962 ft 475 kts 26°
2026-05-09 03:06 -4.55053 -32.78721 34958 ft 475 kts 26°
2026-05-09 03:06 -4.49196 -32.75701 34960 ft 475 kts 26°
2026-05-09 03:07 -4.43302 -32.72663 34959 ft 475 kts 26°
2026-05-09 03:07 -4.37436 -32.69641 34959 ft 475 kts 26°
2026-05-09 03:08 -4.32545 -32.67122 34962 ft 475 kts 26°
2026-05-09 03:08 -4.25694 -32.63594 34962 ft 475 kts 26°
2026-05-09 03:09 -4.20758 -32.61053 34961 ft 475 kts 26°
2026-05-09 03:09 -4.14901 -32.58038 34965 ft 475 kts 26°
2026-05-09 03:10 -4.09003 -32.55002 34964 ft 475 kts 26°
2026-05-09 03:10 -4.03145 -32.51988 34965 ft 476 kts 26°
2026-05-09 03:11 -3.97236 -32.48947 34964 ft 476 kts 26°
2026-05-09 03:11 -3.91371 -32.45930 34964 ft 476 kts 26°
2026-05-09 03:12 -3.85458 -32.42889 34963 ft 476 kts 26°
2026-05-09 03:12 -3.79577 -32.39801 34964 ft 476 kts 27°
2026-05-09 03:13 -3.70806 -32.35150 34966 ft 477 kts 27°
2026-05-09 03:13 -3.64922 -32.32041 34960 ft 477 kts 27°
2026-05-09 03:14 -3.59088 -32.28963 34963 ft 477 kts 27°
2026-05-09 03:14 -3.53209 -32.25861 34958 ft 477 kts 27°
2026-05-09 03:15 -3.47321 -32.22753 34961 ft 477 kts 27°
2026-05-09 03:15 -3.41480 -32.19672 34962 ft 477 kts 27°
2026-05-09 03:16 -3.35604 -32.16572 34954 ft 477 kts 27°
2026-05-09 03:16 -3.29699 -32.13458 34953 ft 477 kts 27°
2026-05-09 03:17 -3.23710 -32.10638 34948 ft 477 kts 22°
2026-05-09 03:17 -3.17574 -32.08047 34948 ft 477 kts 22°
2026-05-09 03:18 -3.11491 -32.05461 34950 ft 477 kts 22°
2026-05-09 03:18 -3.05363 -32.02855 34951 ft 477 kts 22°
2026-05-09 03:19 -2.99276 -32.00269 34951 ft 477 kts 22°
2026-05-09 03:19 -2.93145 -31.97665 34949 ft 478 kts 22°
2026-05-09 03:20 -2.87057 -31.95079 34955 ft 478 kts 22°
2026-05-09 03:20 -2.80926 -31.92475 34949 ft 478 kts 22°
2026-05-09 03:21 -2.74823 -31.89883 34951 ft 477 kts 22°
2026-05-09 03:21 -2.68706 -31.87286 34948 ft 477 kts 22°
2026-05-09 03:22 -2.62591 -31.84689 34949 ft 477 kts 22°
2026-05-09 03:22 -2.56494 -31.82101 34952 ft 477 kts 22°
2026-05-09 03:23 -2.50366 -31.79500 34949 ft 477 kts 22°
2026-05-09 03:23 -2.44284 -31.76918 34943 ft 477 kts 22°
2026-05-09 03:24 -2.38157 -31.74318 34946 ft 477 kts 22°
2026-05-09 03:24 -2.32070 -31.71735 34944 ft 477 kts 22°
2026-05-09 03:25 -2.25941 -31.69134 34942 ft 477 kts 23°
2026-05-09 03:25 -2.19864 -31.66556 34940 ft 477 kts 23°
2026-05-09 03:26 -2.13731 -31.63954 34947 ft 477 kts 23°
2026-05-09 03:26 -2.07633 -31.61367 34943 ft 478 kts 23°
2026-05-09 03:27 -2.01496 -31.58764 34939 ft 478 kts 23°
2026-05-09 03:27 -1.95379 -31.56170 34944 ft 478 kts 23°
2026-05-09 03:28 -1.89289 -31.53586 34950 ft 478 kts 23°
2026-05-09 03:28 -1.83147 -31.50981 34949 ft 478 kts 23°
2026-05-09 03:29 -1.77018 -31.48383 34946 ft 478 kts 23°
2026-05-09 03:29 -1.70934 -31.45803 34945 ft 478 kts 23°
2026-05-09 03:30 -1.64801 -31.43203 34944 ft 478 kts 23°
2026-05-09 03:30 -1.58668 -31.40602 34940 ft 477 kts 23°
2026-05-09 03:31 -1.52579 -31.38021 34943 ft 477 kts 23°
2026-05-09 03:31 -1.46440 -31.35419 34942 ft 478 kts 23°
2026-05-09 03:32 -1.40348 -31.32837 34943 ft 477 kts 23°
2026-05-09 03:32 -1.34222 -31.30241 34941 ft 477 kts 23°
2026-05-09 03:33 -1.28122 -31.27655 34943 ft 477 kts 23°
2026-05-09 03:33 -1.22090 -31.25098 34945 ft 476 kts 23°
2026-05-09 03:34 -1.16014 -31.22524 34943 ft 477 kts 23°
2026-05-09 03:34 -1.09879 -31.19924 34940 ft 477 kts 23°
2026-05-09 03:35 -1.03757 -31.17330 34938 ft 477 kts 23°
2026-05-09 03:35 -0.97672 -31.14751 34937 ft 477 kts 23°
2026-05-09 03:36 -0.91548 -31.12156 34937 ft 477 kts 23°
2026-05-09 03:36 -0.85431 -31.09565 34940 ft 477 kts 23°
2026-05-09 03:37 -0.79321 -31.06926 34942 ft 478 kts 24°
2026-05-09 03:37 -0.73298 -31.04197 34940 ft 477 kts 24°
2026-05-09 03:38 -0.67236 -31.01463 34939 ft 477 kts 24°
2026-05-09 03:38 -0.61181 -30.98746 34938 ft 478 kts 24°
2026-05-09 03:39 -0.55098 -30.96020 34937 ft 477 kts 24°
2026-05-09 03:39 -0.49054 -30.93310 34935 ft 478 kts 24°
2026-05-09 03:40 -0.42975 -30.90586 34939 ft 477 kts 24°
2026-05-09 03:40 -0.36899 -30.87862 34940 ft 478 kts 24°
2026-05-09 03:41 -0.30860 -30.85155 34939 ft 478 kts 24°
2026-05-09 03:41 -0.24780 -30.82430 34939 ft 479 kts 24°
2026-05-09 03:42 -0.18688 -30.79699 34938 ft 479 kts 24°
2026-05-09 03:42 -0.12627 -30.76982 34939 ft 479 kts 24°
2026-05-09 03:43 -0.06531 -30.74250 34933 ft 479 kts 24°
2026-05-09 03:43 -0.00432 -30.71516 34937 ft 480 kts 24°
2026-05-09 03:44 0.05657 -30.68787 34939 ft 479 kts 24°
2026-05-09 03:44 0.11740 -30.66061 34937 ft 479 kts 24°
2026-05-09 03:45 0.17820 -30.63335 34935 ft 479 kts 24°
2026-05-09 03:45 0.23906 -30.60608 34935 ft 479 kts 24°
2026-05-09 03:46 0.29968 -30.57890 34938 ft 479 kts 24°
2026-05-09 03:46 0.36060 -30.55159 34939 ft 479 kts 24°
2026-05-09 03:47 0.42108 -30.52448 34935 ft 479 kts 24°
2026-05-09 03:47 0.48207 -30.49714 34936 ft 479 kts 24°
2026-05-09 03:48 0.54262 -30.47000 34939 ft 478 kts 24°
2026-05-09 03:48 0.60347 -30.44271 34937 ft 479 kts 24°
2026-05-09 03:49 0.66431 -30.41544 34937 ft 478 kts 24°
2026-05-09 03:49 0.72482 -30.38831 34937 ft 478 kts 24°
2026-05-09 03:50 0.78530 -30.36119 34937 ft 478 kts 24°
2026-05-09 03:50 0.84606 -30.33395 34934 ft 478 kts 24°
2026-05-09 03:51 0.90683 -30.30669 34935 ft 478 kts 24°
2026-05-09 03:51 0.96725 -30.27960 34936 ft 478 kts 24°
2026-05-09 03:52 1.02820 -30.25227 34935 ft 478 kts 24°
2026-05-09 03:52 1.08896 -30.22502 34936 ft 478 kts 24°
2026-05-09 03:53 1.14947 -30.19788 34936 ft 478 kts 24°
2026-05-09 03:53 1.20017 -30.17514 34936 ft 479 kts 24°
2026-05-09 03:54 1.26074 -30.14797 34936 ft 478 kts 24°
2026-05-09 03:54 1.32169 -30.12063 34935 ft 479 kts 24°
2026-05-09 03:55 1.38223 -30.09348 34936 ft 479 kts 24°
2026-05-09 03:55 1.44315 -30.06615 34935 ft 478 kts 24°
2026-05-09 03:56 1.50388 -30.03890 34934 ft 478 kts 24°
2026-05-09 03:56 1.56440 -30.01175 34936 ft 479 kts 24°
2026-05-09 03:57 1.62537 -29.98440 34933 ft 479 kts 24°
2026-05-09 03:57 1.68598 -29.95720 34935 ft 479 kts 24°
2026-05-09 03:58 1.74703 -29.92981 34938 ft 479 kts 24°
2026-05-09 03:58 1.80759 -29.90263 34939 ft 479 kts 24°
2026-05-09 03:59 1.86848 -29.87531 34936 ft 479 kts 24°
2026-05-09 03:59 1.92889 -29.84820 34936 ft 479 kts 24°
2026-05-09 04:00 1.98994 -29.82080 34934 ft 479 kts 24°
2026-05-09 04:00 2.05082 -29.79347 34938 ft 479 kts 24°
2026-05-09 04:01 2.11140 -29.76627 34934 ft 479 kts 24°
2026-05-09 04:01 2.17209 -29.73902 34935 ft 479 kts 24°
2026-05-09 04:02 2.23301 -29.71167 34938 ft 479 kts 24°
2026-05-09 04:02 2.29285 -29.68480 34936 ft 479 kts 24°
2026-05-09 04:03 2.35381 -29.65743 34930 ft 479 kts 24°
2026-05-09 04:03 2.41430 -29.63026 34932 ft 479 kts 24°
2026-05-09 04:04 2.47522 -29.60290 34933 ft 478 kts 24°
2026-05-09 04:04 2.53596 -29.57561 34933 ft 478 kts 24°
2026-05-09 04:05 2.59646 -29.54843 34930 ft 478 kts 24°
2026-05-09 04:05 2.65744 -29.52103 34931 ft 478 kts 24°
2026-05-09 04:06 2.71795 -29.49384 34930 ft 479 kts 24°
2026-05-09 04:06 2.77879 -29.46649 34932 ft 479 kts 24°
2026-05-09 04:07 2.83936 -29.43927 34933 ft 479 kts 24°
2026-05-09 04:07 2.88729 -29.41773 34931 ft 479 kts 24°
2026-05-09 04:08 2.94780 -29.39053 34932 ft 479 kts 24°
2026-05-09 04:08 3.00888 -29.36307 34933 ft 479 kts 24°
2026-05-09 04:09 3.06951 -29.33580 34726 ft 481 kts 24°
2026-05-09 04:09 3.10002 -29.32208 34350 ft 480 kts 24°
2026-05-09 04:09 3.13056 -29.30835 33973 ft 479 kts 24°
2026-05-09 04:10 3.16082 -29.29474 33761 ft 479 kts 24°
2026-05-09 04:10 3.19120 -29.28108 33807 ft 480 kts 24°
2026-05-09 04:10 3.22180 -29.26732 33927 ft 481 kts 24°
2026-05-09 04:10 3.25209 -29.25369 34041 ft 481 kts 24°
2026-05-09 04:11 3.28268 -29.23993 34155 ft 481 kts 24°
2026-05-09 04:11 3.31329 -29.22615 34267 ft 481 kts 24°
2026-05-09 04:11 3.34389 -29.21238 34377 ft 481 kts 24°
2026-05-09 04:11 3.37407 -29.19880 34489 ft 480 kts 24°
2026-05-09 04:12 3.40456 -29.18508 34610 ft 480 kts 24°
2026-05-09 04:12 3.43510 -29.17134 34722 ft 480 kts 24°
2026-05-09 04:12 3.46547 -29.15767 34842 ft 479 kts 24°
2026-05-09 04:12 3.49607 -29.14389 34920 ft 480 kts 24°
2026-05-09 04:13 3.55700 -29.11646 34926 ft 479 kts 24°
2026-05-09 04:13 3.61754 -29.08921 34927 ft 479 kts 24°
2026-05-09 04:14 3.67856 -29.06173 34931 ft 480 kts 24°
2026-05-09 04:14 3.73902 -29.03450 34933 ft 479 kts 24°
2026-05-09 04:15 3.80007 -29.00701 34930 ft 480 kts 24°
2026-05-09 04:15 3.86080 -28.97965 34930 ft 480 kts 24°
2026-05-09 04:16 3.92175 -28.95219 34930 ft 480 kts 24°
2026-05-09 04:16 3.98244 -28.92483 34932 ft 480 kts 24°
2026-05-09 04:17 4.04356 -28.89728 34927 ft 480 kts 24°
2026-05-09 04:17 4.10423 -28.86993 34930 ft 480 kts 25°
2026-05-09 04:18 4.16551 -28.84231 34930 ft 481 kts 25°
2026-05-09 04:18 4.22624 -28.81492 34931 ft 481 kts 25°
2026-05-09 04:19 4.28737 -28.78735 34928 ft 482 kts 25°
2026-05-09 04:19 4.34827 -28.75987 34929 ft 482 kts 25°
2026-05-09 04:20 4.40972 -28.73214 34924 ft 482 kts 25°
2026-05-09 04:20 4.47086 -28.70455 34932 ft 482 kts 25°
2026-05-09 04:21 4.53182 -28.67704 34927 ft 483 kts 25°
2026-05-09 04:22 4.62395 -28.63545 34929 ft 484 kts 25°
2026-05-09 04:22 4.68508 -28.60785 34929 ft 484 kts 25°
2026-05-09 04:23 4.74662 -28.58005 34930 ft 485 kts 25°
2026-05-09 04:23 4.80841 -28.55214 34932 ft 486 kts 25°
2026-05-09 04:24 4.86986 -28.52438 34935 ft 486 kts 25°
2026-05-09 04:24 4.93169 -28.49642 34935 ft 487 kts 25°
2026-05-09 04:25 4.99362 -28.46844 34933 ft 487 kts 25°
2026-05-09 04:25 5.05533 -28.44053 34933 ft 488 kts 25°
2026-05-09 04:26 5.11725 -28.41254 34942 ft 488 kts 25°
2026-05-09 04:26 5.17904 -28.38459 34935 ft 488 kts 25°
2026-05-09 04:27 5.24112 -28.35649 34941 ft 489 kts 25°
2026-05-09 04:27 5.30297 -28.32850 34944 ft 489 kts 25°
2026-05-09 04:28 5.36509 -28.30040 34941 ft 489 kts 25°
2026-05-09 04:28 5.42683 -28.27244 34937 ft 489 kts 25°
2026-05-09 04:29 5.48907 -28.24427 34942 ft 489 kts 25°
2026-05-09 04:29 5.55129 -28.21609 34939 ft 490 kts 24°
2026-05-09 04:30 5.61302 -28.18812 34934 ft 490 kts 24°
2026-05-09 04:30 5.67533 -28.15989 34937 ft 491 kts 24°
2026-05-09 04:31 5.73761 -28.13166 34941 ft 491 kts 24°
2026-05-09 04:31 5.79847 -28.10407 34938 ft 491 kts 24°
2026-05-09 04:32 5.86059 -28.07590 34942 ft 492 kts 24°
2026-05-09 04:32 5.92253 -28.04782 34964 ft 489 kts 25°
2026-05-09 04:33 5.98451 -28.01969 34951 ft 488 kts 25°
2026-05-09 04:33 6.04618 -27.99170 34946 ft 487 kts 24°
2026-05-09 04:34 6.10813 -27.96358 34943 ft 487 kts 24°
2026-05-09 04:34 6.16989 -27.93554 34939 ft 487 kts 24°
2026-05-09 04:35 6.23131 -27.90765 34939 ft 487 kts 24°
2026-05-09 04:35 6.29315 -27.87955 34935 ft 487 kts 24°
2026-05-09 04:36 6.35486 -27.85152 34935 ft 487 kts 24°
2026-05-09 04:36 6.41684 -27.82335 34938 ft 487 kts 24°
2026-05-09 04:37 6.47848 -27.79532 34940 ft 487 kts 24°
2026-05-09 04:37 6.54050 -27.76712 34941 ft 488 kts 24°
2026-05-09 04:38 6.60207 -27.73912 34936 ft 488 kts 24°
2026-05-09 04:38 6.66418 -27.71086 34937 ft 488 kts 24°
2026-05-09 04:39 6.72591 -27.68276 34944 ft 489 kts 24°
2026-05-09 04:39 6.78789 -27.65455 34950 ft 488 kts 24°
2026-05-09 04:40 6.84961 -27.62645 34954 ft 488 kts 24°
2026-05-09 04:40 6.91163 -27.59820 34951 ft 488 kts 24°
2026-05-09 04:41 6.97332 -27.57009 34950 ft 488 kts 24°
2026-05-09 04:41 7.03552 -27.54175 34948 ft 489 kts 24°
2026-05-09 04:42 7.09726 -27.51360 34947 ft 489 kts 24°
2026-05-09 04:42 7.14890 -27.49006 34950 ft 489 kts 24°
2026-05-09 04:43 7.21105 -27.46172 34954 ft 489 kts 24°
2026-05-09 04:43 7.27289 -27.43351 34953 ft 490 kts 24°
2026-05-09 04:44 7.33511 -27.40511 34949 ft 490 kts 23°
2026-05-09 04:44 7.39738 -27.37669 34955 ft 490 kts 23°
2026-05-09 04:45 7.45946 -27.34834 34959 ft 491 kts 23°
2026-05-09 04:45 7.52155 -27.31998 34954 ft 491 kts 23°
2026-05-09 04:46 7.58392 -27.29148 34962 ft 491 kts 23°
2026-05-09 04:46 7.64631 -27.26296 34957 ft 492 kts 23°
2026-05-09 04:47 7.70841 -27.23457 34962 ft 492 kts 23°
2026-05-09 04:47 7.77085 -27.20601 34965 ft 492 kts 23°
2026-05-09 04:48 7.83288 -27.17763 34963 ft 492 kts 23°
2026-05-09 04:48 7.89551 -27.14897 34963 ft 492 kts 23°
2026-05-09 04:49 7.95758 -27.12055 34969 ft 492 kts 23°
2026-05-09 04:49 8.02001 -27.09195 34965 ft 493 kts 23°
2026-05-09 04:50 8.08235 -27.06340 34964 ft 493 kts 23°
2026-05-09 04:50 8.14492 -27.03473 34964 ft 493 kts 23°
2026-05-09 04:51 8.20754 -27.00603 34971 ft 493 kts 23°
2026-05-09 04:51 8.26994 -26.97742 34971 ft 494 kts 23°
2026-05-09 04:52 8.33228 -26.94882 34972 ft 494 kts 23°
2026-05-09 04:52 8.39503 -26.92002 34969 ft 494 kts 23°
2026-05-09 04:53 8.45770 -26.89125 34967 ft 494 kts 23°
2026-05-09 04:53 8.52004 -26.86262 34965 ft 494 kts 23°
2026-05-09 04:54 8.58281 -26.83378 34970 ft 494 kts 23°
2026-05-09 04:54 8.64507 -26.80514 34971 ft 494 kts 23°
2026-05-09 04:55 8.70784 -26.77626 34972 ft 494 kts 23°
2026-05-09 04:55 8.77020 -26.74757 34968 ft 494 kts 23°
2026-05-09 04:56 8.83288 -26.71872 34970 ft 494 kts 23°
2026-05-09 04:56 8.89531 -26.68997 34974 ft 494 kts 23°
2026-05-09 04:57 8.95814 -26.66103 34975 ft 494 kts 23°
2026-05-09 04:57 9.02055 -26.63227 34977 ft 494 kts 23°
2026-05-09 04:58 9.08321 -26.60338 34978 ft 494 kts 23°
2026-05-09 04:58 9.14553 -26.57464 34981 ft 494 kts 23°
2026-05-09 04:59 9.20834 -26.54566 34980 ft 494 kts 23°
2026-05-09 04:59 9.27064 -26.51690 34979 ft 494 kts 23°
2026-05-09 05:00 9.33340 -26.48792 34981 ft 494 kts 22°
2026-05-09 05:00 9.39484 -26.45954 34980 ft 494 kts 22°
2026-05-09 05:01 9.45705 -26.43079 34973 ft 494 kts 22°
2026-05-09 05:01 9.51987 -26.40175 34975 ft 494 kts 22°
2026-05-09 05:02 9.58245 -26.37281 34976 ft 494 kts 22°
2026-05-09 05:02 9.64478 -26.34397 34980 ft 494 kts 22°
2026-05-09 05:03 9.70755 -26.31492 34982 ft 494 kts 22°
2026-05-09 05:03 9.76993 -26.28603 34976 ft 495 kts 22°
2026-05-09 05:04 9.83274 -26.25694 34979 ft 495 kts 22°
2026-05-09 05:04 9.89515 -26.22801 34982 ft 495 kts 22°
2026-05-09 05:05 9.95801 -26.19887 34987 ft 495 kts 22°
2026-05-09 05:05 10.02073 -26.16978 34986 ft 495 kts 22°
2026-05-09 05:06 10.08322 -26.14078 34983 ft 496 kts 22°
2026-05-09 05:06 10.14606 -26.11160 34972 ft 496 kts 22°
2026-05-09 05:07 10.20851 -26.08260 34971 ft 496 kts 22°
2026-05-09 05:07 10.27147 -26.05335 34987 ft 496 kts 22°
2026-05-09 05:08 10.33394 -26.02431 35001 ft 496 kts 22°
2026-05-09 05:08 10.39699 -25.99499 34993 ft 496 kts 22°
2026-05-09 05:09 10.45946 -25.96593 34980 ft 496 kts 22°
2026-05-09 05:09 10.52233 -25.93666 34980 ft 496 kts 22°
2026-05-09 05:10 10.58518 -25.90739 34982 ft 496 kts 22°
2026-05-09 05:10 10.64772 -25.87826 34989 ft 496 kts 22°
2026-05-09 05:11 10.71068 -25.84892 34984 ft 496 kts 22°
2026-05-09 05:11 10.77324 -25.81974 34991 ft 496 kts 22°
2026-05-09 05:12 10.83616 -25.79039 34988 ft 497 kts 22°
2026-05-09 05:12 10.89875 -25.76118 34984 ft 497 kts 22°
2026-05-09 05:13 10.96173 -25.73177 34988 ft 497 kts 22°
2026-05-09 05:13 11.02433 -25.70253 34989 ft 498 kts 22°
2026-05-09 05:14 11.08754 -25.67298 34992 ft 498 kts 22°
2026-05-09 05:14 11.15051 -25.64354 34991 ft 498 kts 22°
2026-05-09 05:15 11.21325 -25.61418 34992 ft 498 kts 22°
2026-05-09 05:15 11.27635 -25.58465 34994 ft 498 kts 22°
2026-05-09 05:16 11.33906 -25.55529 34992 ft 498 kts 22°
2026-05-09 05:16 11.40230 -25.52566 34992 ft 499 kts 22°
2026-05-09 05:17 11.46513 -25.49620 34996 ft 499 kts 22°
2026-05-09 05:17 11.52839 -25.46653 34999 ft 499 kts 22°
2026-05-09 05:18 11.59155 -25.43690 34996 ft 499 kts 22°
2026-05-09 05:18 11.65450 -25.40735 34998 ft 499 kts 22°
2026-05-09 05:19 11.70294 -25.38460 34996 ft 499 kts 22°
2026-05-09 05:19 11.76617 -25.35488 34997 ft 499 kts 22°
2026-05-09 05:20 11.82906 -25.32532 34999 ft 499 kts 22°
2026-05-09 05:20 11.89234 -25.29555 35002 ft 499 kts 22°
2026-05-09 05:21 11.95546 -25.26585 35001 ft 499 kts 22°
2026-05-09 05:21 12.01817 -25.23632 35001 ft 499 kts 22°
2026-05-09 05:22 12.08136 -25.20656 35001 ft 498 kts 22°
2026-05-09 05:22 12.14434 -25.17687 35002 ft 498 kts 22°
2026-05-09 05:23 12.20695 -25.14735 35004 ft 498 kts 22°
2026-05-09 05:23 12.26995 -25.11763 35007 ft 497 kts 22°
2026-05-09 05:24 12.33255 -25.08808 35007 ft 497 kts 22°
2026-05-09 05:24 12.39532 -25.05844 35006 ft 496 kts 22°
2026-05-09 05:25 12.45826 -25.02870 35006 ft 496 kts 22°
2026-05-09 05:25 12.55176 -24.98449 35003 ft 495 kts 22°
2026-05-09 05:26 12.61438 -24.95487 35001 ft 495 kts 22°
2026-05-09 05:26 12.67703 -24.92521 35002 ft 494 kts 22°
2026-05-09 05:27 12.73922 -24.89575 35004 ft 494 kts 22°
2026-05-09 05:27 12.80146 -24.86626 34999 ft 494 kts 22°
2026-05-09 05:28 12.85347 -24.84160 35001 ft 494 kts 22°
2026-05-09 05:28 12.92605 -24.80716 35001 ft 494 kts 22°
2026-05-09 05:29 12.97632 -24.78330 35007 ft 494 kts 22°
2026-05-09 05:29 13.03899 -24.75353 35006 ft 493 kts 22°
2026-05-09 05:30 13.10099 -24.72406 35005 ft 493 kts 22°
2026-05-09 05:30 13.16332 -24.69443 35006 ft 493 kts 22°
2026-05-09 05:31 13.22580 -24.66470 34998 ft 493 kts 22°
2026-05-09 05:31 13.28771 -24.63523 35000 ft 493 kts 22°
2026-05-09 05:32 13.34986 -24.60563 35017 ft 493 kts 22°
2026-05-09 05:32 13.41232 -24.57586 35007 ft 493 kts 22°
2026-05-09 05:33 13.47431 -24.54631 35007 ft 493 kts 22°
2026-05-09 05:33 13.53676 -24.51652 35008 ft 493 kts 22°
2026-05-09 05:34 13.59920 -24.48672 35008 ft 493 kts 22°
2026-05-09 05:34 13.66118 -24.45712 35012 ft 493 kts 22°
2026-05-09 05:35 13.72355 -24.42726 35013 ft 494 kts 23°
2026-05-09 05:35 13.78548 -24.39731 35013 ft 493 kts 23°
2026-05-09 05:36 13.84777 -24.36720 35016 ft 494 kts 23°
2026-05-09 05:36 13.90973 -24.33727 35010 ft 494 kts 23°
2026-05-09 05:37 13.97202 -24.30716 35012 ft 494 kts 23°
2026-05-09 05:37 14.03399 -24.27719 35012 ft 494 kts 23°
2026-05-09 05:38 14.09613 -24.24711 35015 ft 494 kts 23°
2026-05-09 05:38 14.15841 -24.21696 35016 ft 494 kts 23°
2026-05-09 05:39 14.22064 -24.18680 35017 ft 494 kts 23°
2026-05-09 05:39 14.28257 -24.15678 35015 ft 494 kts 24°
2026-05-09 05:40 14.34492 -24.12653 35020 ft 493 kts 24°
2026-05-09 05:40 14.40684 -24.09647 35018 ft 494 kts 24°
2026-05-09 05:41 14.46904 -24.06626 35015 ft 494 kts 24°
2026-05-09 05:41 14.53129 -24.03600 35010 ft 494 kts 24°
2026-05-09 05:42 14.59322 -24.00588 35022 ft 494 kts 24°
2026-05-09 05:42 14.65537 -23.97564 35019 ft 494 kts 24°
2026-05-09 05:43 14.71730 -23.94548 35020 ft 494 kts 24°
2026-05-09 05:43 14.77963 -23.91511 35023 ft 494 kts 24°
2026-05-09 05:44 14.84175 -23.88482 35024 ft 494 kts 24°
2026-05-09 05:44 14.90357 -23.85466 35022 ft 494 kts 24°
2026-05-09 05:45 14.96584 -23.82426 35023 ft 494 kts 24°
2026-05-09 05:45 15.02773 -23.79402 35022 ft 494 kts 24°
2026-05-09 05:46 15.09000 -23.76358 35017 ft 494 kts 24°
2026-05-09 05:46 15.15230 -23.73311 35026 ft 494 kts 24°
2026-05-09 05:47 15.21431 -23.70276 35029 ft 494 kts 24°
2026-05-09 05:47 15.27661 -23.67224 35024 ft 494 kts 24°
2026-05-09 05:48 15.33851 -23.64190 35031 ft 494 kts 24°
2026-05-09 05:48 15.40088 -23.61131 35026 ft 494 kts 24°
2026-05-09 05:49 15.46288 -23.58088 35030 ft 494 kts 24°
2026-05-09 05:49 15.52485 -23.55045 35031 ft 495 kts 24°
2026-05-09 05:50 15.58727 -23.51977 35034 ft 495 kts 24°
2026-05-09 05:50 15.64926 -23.48929 35028 ft 495 kts 24°
2026-05-09 05:51 15.71170 -23.45856 35032 ft 495 kts 24°
2026-05-09 05:51 15.77362 -23.42807 35033 ft 495 kts 24°
2026-05-09 05:52 15.83592 -23.39737 35037 ft 495 kts 24°
2026-05-09 05:52 15.89836 -23.36658 35039 ft 495 kts 24°
2026-05-09 05:53 15.96032 -23.33601 35034 ft 495 kts 24°
2026-05-09 05:53 16.02278 -23.30517 35039 ft 495 kts 24°
2026-05-09 05:54 16.08492 -23.27446 35037 ft 495 kts 24°
2026-05-09 05:54 16.14739 -23.24357 35038 ft 496 kts 24°
2026-05-09 05:55 16.20934 -23.21292 35040 ft 496 kts 24°
2026-05-09 05:55 16.27181 -23.18198 35040 ft 496 kts 24°
2026-05-09 05:56 16.33410 -23.15112 35018 ft 496 kts 24°
2026-05-09 05:56 16.39649 -23.12018 35034 ft 496 kts 24°
2026-05-09 05:57 16.45856 -23.08938 35020 ft 496 kts 24°
2026-05-09 05:57 16.51917 -23.05928 35030 ft 496 kts 24°
2026-05-09 05:58 16.58128 -23.02842 35036 ft 496 kts 24°
2026-05-09 05:58 16.64374 -22.99736 35029 ft 496 kts 24°
2026-05-09 05:59 16.70575 -22.96651 35012 ft 496 kts 24°
2026-05-09 05:59 16.76700 -22.93279 35007 ft 497 kts 29°
2026-05-09 06:00 16.82640 -22.89659 35011 ft 497 kts 28°
2026-05-09 06:00 16.88650 -22.86020 35035 ft 497 kts 28°
2026-05-09 06:01 16.94605 -22.82410 35048 ft 497 kts 28°
2026-05-09 06:01 17.00606 -22.78766 35038 ft 497 kts 28°
2026-05-09 06:02 17.06563 -22.75145 35036 ft 498 kts 28°
2026-05-09 06:02 17.12557 -22.71498 35041 ft 498 kts 28°
2026-05-09 06:03 17.18546 -22.67852 35047 ft 498 kts 28°
2026-05-09 06:03 17.24501 -22.64224 35062 ft 498 kts 28°
2026-05-09 06:04 17.30501 -22.60566 35043 ft 498 kts 28°
2026-05-09 06:04 17.36497 -22.56908 35037 ft 498 kts 28°
2026-05-09 06:05 17.42459 -22.53267 35044 ft 498 kts 28°
2026-05-09 06:05 17.48432 -22.49617 35048 ft 498 kts 28°
2026-05-09 06:06 17.54425 -22.45952 35049 ft 498 kts 28°
2026-05-09 06:06 17.60428 -22.42278 35051 ft 498 kts 28°
2026-05-09 06:07 17.66399 -22.38621 35050 ft 498 kts 28°
2026-05-09 06:07 17.72361 -22.34966 35049 ft 498 kts 28°
2026-05-09 06:08 17.78363 -22.31284 35054 ft 498 kts 28°
2026-05-09 06:08 17.84325 -22.27623 35054 ft 498 kts 28°
2026-05-09 06:09 17.90290 -22.23959 35054 ft 498 kts 28°
2026-05-09 06:09 17.96295 -22.20266 35053 ft 499 kts 28°
2026-05-09 06:10 18.02261 -22.16595 35055 ft 499 kts 28°
2026-05-09 06:10 18.08267 -22.12896 35054 ft 499 kts 28°
2026-05-09 06:11 18.14221 -22.09226 35056 ft 499 kts 28°
2026-05-09 06:11 18.20227 -22.05521 35056 ft 499 kts 28°
2026-05-09 06:12 18.26190 -22.01839 35055 ft 499 kts 28°
2026-05-09 06:12 18.32199 -21.98127 35057 ft 499 kts 28°
2026-05-09 06:13 18.38167 -21.94436 35056 ft 499 kts 28°
2026-05-09 06:13 18.44167 -21.90723 35057 ft 499 kts 28°
2026-05-09 06:14 18.50142 -21.87022 35059 ft 499 kts 28°
2026-05-09 06:14 18.56142 -21.83303 35057 ft 499 kts 28°
2026-05-09 06:15 18.62116 -21.79596 35056 ft 500 kts 28°
2026-05-09 06:15 18.68126 -21.75865 35060 ft 500 kts 28°
2026-05-09 06:16 18.74103 -21.72150 35060 ft 500 kts 28°
2026-05-09 06:16 18.80080 -21.68433 35062 ft 500 kts 28°
2026-05-09 06:17 18.86072 -21.64703 35058 ft 500 kts 28°
2026-05-09 06:17 18.91067 -21.61591 35060 ft 500 kts 28°
2026-05-09 06:18 18.98029 -21.57251 35059 ft 500 kts 28°
2026-05-09 06:18 19.03032 -21.54129 35060 ft 500 kts 28°
2026-05-09 06:19 19.09031 -21.50383 35060 ft 500 kts 28°
2026-05-09 06:19 19.14996 -21.46655 35059 ft 500 kts 28°
2026-05-09 06:20 19.21000 -21.42899 35060 ft 500 kts 28°
2026-05-09 06:20 19.26964 -21.39165 35063 ft 500 kts 28°
2026-05-09 06:21 19.32958 -21.35409 35062 ft 500 kts 28°
2026-05-09 06:21 19.38951 -21.31651 35059 ft 500 kts 28°
2026-05-09 06:22 19.44928 -21.27899 35063 ft 500 kts 28°
2026-05-09 06:22 19.50894 -21.24151 35060 ft 500 kts 28°
2026-05-09 06:23 19.56854 -21.20403 35065 ft 500 kts 28°
2026-05-09 06:23 19.62846 -21.16632 35062 ft 500 kts 28°
2026-05-09 06:24 19.68839 -21.12857 35065 ft 500 kts 28°
2026-05-09 06:24 19.74801 -21.09099 35063 ft 500 kts 28°
2026-05-09 06:25 19.80797 -21.05315 35066 ft 500 kts 28°
2026-05-09 06:25 19.86763 -21.01547 35065 ft 501 kts 28°
2026-05-09 06:26 19.92761 -20.97756 35067 ft 501 kts 28°
2026-05-09 06:26 19.98660 -20.94024 35067 ft 501 kts 28°
2026-05-09 06:27 20.04663 -20.90223 35063 ft 501 kts 28°
2026-05-09 06:27 20.10671 -20.86414 35071 ft 501 kts 28°
2026-05-09 06:28 20.16634 -20.82632 35065 ft 502 kts 28°
2026-05-09 06:28 20.22631 -20.78824 35067 ft 502 kts 28°
2026-05-09 06:29 20.28614 -20.75023 35065 ft 502 kts 28°
2026-05-09 06:29 20.34624 -20.71202 35070 ft 502 kts 28°
2026-05-09 06:30 20.40607 -20.67389 35069 ft 503 kts 28°
2026-05-09 06:30 20.46624 -20.63541 35073 ft 503 kts 28°
2026-05-09 06:31 20.52608 -20.59715 35074 ft 503 kts 28°
2026-05-09 06:31 20.58623 -20.55866 35073 ft 503 kts 27°
2026-05-09 06:32 20.64623 -20.52023 35075 ft 503 kts 27°
2026-05-09 06:33 20.73615 -20.46258 35077 ft 504 kts 27°
2026-05-09 06:33 20.79652 -20.42382 35077 ft 504 kts 27°
2026-05-09 06:34 20.88642 -20.36604 35073 ft 504 kts 27°
2026-05-09 06:34 20.94669 -20.32726 35075 ft 505 kts 27°
2026-05-09 06:35 21.00704 -20.28839 35079 ft 505 kts 27°
2026-05-09 06:35 21.06696 -20.24976 35079 ft 505 kts 27°
2026-05-09 06:36 21.12729 -20.21083 35078 ft 505 kts 27°
2026-05-09 06:36 21.18732 -20.17205 35078 ft 506 kts 27°
2026-05-09 06:37 21.24781 -20.13294 35079 ft 506 kts 27°
2026-05-09 06:37 21.30781 -20.09411 35081 ft 506 kts 27°
2026-05-09 06:38 21.36824 -20.05496 35077 ft 507 kts 27°
2026-05-09 06:38 21.42868 -20.01577 35079 ft 507 kts 27°
2026-05-09 06:39 21.48871 -19.97681 35077 ft 507 kts 27°
2026-05-09 06:39 21.54937 -19.93740 35080 ft 507 kts 27°
2026-05-09 06:40 21.60959 -19.89823 35079 ft 508 kts 27°
2026-05-09 06:40 21.67022 -19.85876 35082 ft 508 kts 27°
2026-05-09 06:41 21.73039 -19.81955 35085 ft 508 kts 27°
2026-05-09 06:41 21.79087 -19.78010 35085 ft 508 kts 27°
2026-05-09 06:42 21.85149 -19.74052 35081 ft 508 kts 27°
2026-05-09 06:42 21.91192 -19.70102 35081 ft 509 kts 27°
2026-05-09 06:43 21.97243 -19.66143 35087 ft 509 kts 27°
2026-05-09 06:43 22.03261 -19.62202 35085 ft 509 kts 27°
2026-05-09 06:44 22.09299 -19.58245 35084 ft 509 kts 27°
2026-05-09 06:44 22.15368 -19.54259 35087 ft 509 kts 27°
2026-05-09 06:45 22.21438 -19.50270 35082 ft 509 kts 26°
2026-05-09 06:45 22.27485 -19.46294 35082 ft 509 kts 26°
2026-05-09 06:46 22.33523 -19.42320 35093 ft 509 kts 26°
2026-05-09 06:46 22.39544 -19.38352 35075 ft 509 kts 26°
2026-05-09 06:47 22.45607 -19.34352 35073 ft 510 kts 26°
2026-05-09 06:47 22.51645 -19.30365 35078 ft 510 kts 26°
2026-05-09 06:48 22.57708 -19.26357 35082 ft 510 kts 26°
2026-05-09 06:48 22.63763 -19.22350 35085 ft 510 kts 26°
2026-05-09 06:49 22.69797 -19.18353 35084 ft 510 kts 26°
2026-05-09 06:49 22.75856 -19.14334 35086 ft 510 kts 26°
2026-05-09 06:50 22.81901 -19.10322 35081 ft 511 kts 26°
2026-05-09 06:50 22.87986 -19.06278 35081 ft 511 kts 26°
2026-05-09 06:51 22.94054 -19.02241 35085 ft 511 kts 26°
2026-05-09 06:51 23.00091 -18.98220 35086 ft 511 kts 26°
2026-05-09 06:52 23.06128 -18.94196 35087 ft 511 kts 26°
2026-05-09 06:52 23.12207 -18.90139 35082 ft 511 kts 26°
2026-05-09 06:53 23.18255 -18.86098 35077 ft 511 kts 26°
2026-05-09 06:53 23.24345 -18.82025 35082 ft 512 kts 26°
2026-05-09 06:54 23.30389 -18.77978 35081 ft 512 kts 26°
2026-05-09 06:54 23.36473 -18.73900 35083 ft 512 kts 26°
2026-05-09 06:55 23.42524 -18.69840 35081 ft 512 kts 26°
2026-05-09 06:55 23.48476 -18.65842 35080 ft 512 kts 26°
2026-05-09 06:56 23.54562 -18.61749 35073 ft 513 kts 26°
2026-05-09 06:56 23.60609 -18.57678 35077 ft 513 kts 26°
2026-05-09 06:57 23.66691 -18.53579 35076 ft 513 kts 26°
2026-05-09 06:57 23.72740 -18.49498 35078 ft 513 kts 26°
2026-05-09 06:58 23.78822 -18.45390 35080 ft 513 kts 26°
2026-05-09 06:58 23.84906 -18.41277 35069 ft 513 kts 26°
2026-05-09 06:59 23.90967 -18.37173 35083 ft 514 kts 26°
2026-05-09 06:59 23.97054 -18.33048 35085 ft 514 kts 26°
2026-05-09 07:00 24.03105 -18.28942 35069 ft 514 kts 26°
2026-05-09 07:00 24.09176 -18.24819 35068 ft 514 kts 26°
2026-05-09 07:01 24.15255 -18.20686 35074 ft 514 kts 26°
2026-05-09 07:01 24.21359 -18.16530 35077 ft 514 kts 25°
2026-05-09 07:02 24.27423 -18.12397 35075 ft 515 kts 25°
2026-05-09 07:02 24.33483 -18.08262 35078 ft 515 kts 25°
2026-05-09 07:03 24.38549 -18.04803 35080 ft 515 kts 25°
2026-05-09 07:03 24.45662 -17.99938 35081 ft 515 kts 25°
2026-05-09 07:04 24.51720 -17.95790 35084 ft 515 kts 25°
2026-05-09 07:04 24.56788 -17.92317 35076 ft 516 kts 25°
2026-05-09 07:05 24.62902 -17.88122 35079 ft 516 kts 25°
2026-05-09 07:05 24.68962 -17.83959 35080 ft 516 kts 25°
2026-05-09 07:06 24.75071 -17.79758 35080 ft 516 kts 25°
2026-05-09 07:06 24.81140 -17.75579 35075 ft 516 kts 25°
2026-05-09 07:07 24.87240 -17.71374 35076 ft 517 kts 25°
2026-05-09 07:07 24.93346 -17.67161 35079 ft 517 kts 25°
2026-05-09 07:08 24.99416 -17.62970 35078 ft 517 kts 25°
2026-05-09 07:08 25.05534 -17.58732 35078 ft 518 kts 25°
2026-05-09 07:09 25.11603 -17.54521 35082 ft 518 kts 25°
2026-05-09 07:09 25.17723 -17.50271 35078 ft 518 kts 25°
2026-05-09 07:10 25.23815 -17.46036 35080 ft 518 kts 25°
2026-05-09 07:10 25.29937 -17.41776 35076 ft 519 kts 25°
2026-05-09 07:11 25.36049 -17.37517 35072 ft 519 kts 25°
2026-05-09 07:11 25.42150 -17.33261 35073 ft 519 kts 25°
2026-05-09 07:12 25.48226 -17.29017 35073 ft 519 kts 25°
2026-05-09 07:12 25.54353 -17.24732 35076 ft 519 kts 25°
2026-05-09 07:13 25.60438 -17.20471 35071 ft 519 kts 25°
2026-05-09 07:13 25.66566 -17.16174 35074 ft 520 kts 25°
2026-05-09 07:14 25.72671 -17.11889 35071 ft 520 kts 25°
2026-05-09 07:14 25.78761 -17.07609 35075 ft 520 kts 25°
2026-05-09 07:15 25.84886 -17.03300 35072 ft 520 kts 25°
2026-05-09 07:15 25.90976 -16.99009 35069 ft 520 kts 25°
2026-05-09 07:16 25.97115 -16.94679 35071 ft 520 kts 25°
2026-05-09 07:16 26.03207 -16.90377 35055 ft 521 kts 25°
2026-05-09 07:17 26.09337 -16.86042 35058 ft 521 kts 25°
2026-05-09 07:17 26.15462 -16.81705 35074 ft 521 kts 25°
2026-05-09 07:18 26.21552 -16.77390 35069 ft 521 kts 25°
2026-05-09 07:18 26.27700 -16.73038 35066 ft 521 kts 25°
2026-05-09 07:19 26.33796 -16.68720 35066 ft 521 kts 25°
2026-05-09 07:19 26.39931 -16.64367 35066 ft 522 kts 25°
2026-05-09 07:20 26.46042 -16.60025 35074 ft 522 kts 25°
2026-05-09 07:20 26.52187 -16.55654 35073 ft 522 kts 25°
2026-05-09 07:21 26.58282 -16.51312 35070 ft 522 kts 25°
2026-05-09 07:21 26.64427 -16.46930 35070 ft 522 kts 25°
2026-05-09 07:22 26.70545 -16.42561 35066 ft 522 kts 25°
2026-05-09 07:22 26.76655 -16.38192 35065 ft 522 kts 25°
2026-05-09 07:23 26.82797 -16.33794 35066 ft 522 kts 24°
2026-05-09 07:23 26.88896 -16.29421 35070 ft 522 kts 24°
2026-05-09 07:24 26.94871 -16.25127 35064 ft 522 kts 24°
2026-05-09 07:24 27.01004 -16.20708 35074 ft 522 kts 24°
2026-05-09 07:25 27.07105 -16.16308 35060 ft 522 kts 24°
2026-05-09 07:25 27.13196 -16.11909 35054 ft 523 kts 24°
2026-05-09 07:26 27.19331 -16.07473 35059 ft 523 kts 24°
2026-05-09 07:26 27.25423 -16.03063 35060 ft 523 kts 24°
2026-05-09 07:27 27.31556 -15.98616 35062 ft 523 kts 24°
2026-05-09 07:27 27.37646 -15.94195 35053 ft 523 kts 24°
2026-05-09 07:28 27.43772 -15.89742 35055 ft 523 kts 24°
2026-05-09 07:28 27.49853 -15.85316 35051 ft 523 kts 24°
2026-05-09 07:29 27.55976 -15.80853 35048 ft 523 kts 24°
2026-05-09 07:29 27.62105 -15.76380 35048 ft 523 kts 24°
2026-05-09 07:30 27.68196 -15.71928 35049 ft 523 kts 24°
2026-05-09 07:30 27.74295 -15.67466 35050 ft 523 kts 24°
2026-05-09 07:31 27.80412 -15.62984 35051 ft 524 kts 24°
2026-05-09 07:31 27.86536 -15.58495 35053 ft 524 kts 24°
2026-05-09 07:32 27.92629 -15.54016 35061 ft 524 kts 24°
2026-05-09 07:32 27.98762 -15.49500 35051 ft 524 kts 24°
2026-05-09 07:33 28.07901 -15.42764 35054 ft 524 kts 24°
2026-05-09 07:34 28.14023 -15.38223 35042 ft 524 kts 24°
2026-05-09 07:34 28.20097 -15.33706 35032 ft 525 kts 24°
2026-05-09 07:35 28.26211 -15.29157 35041 ft 525 kts 24°
2026-05-09 07:35 28.32344 -15.24587 35050 ft 525 kts 24°
2026-05-09 07:36 28.38436 -15.20042 35048 ft 526 kts 24°
2026-05-09 07:36 28.44558 -15.15467 35053 ft 526 kts 24°
2026-05-09 07:37 28.50687 -15.10881 35054 ft 527 kts 24°
2026-05-09 07:37 28.56789 -15.06308 35060 ft 527 kts 24°
2026-05-09 07:38 28.62897 -15.01725 35058 ft 527 kts 24°
2026-05-09 07:38 28.69020 -14.97123 35059 ft 527 kts 24°
2026-05-09 07:39 28.75159 -14.92502 35058 ft 527 kts 24°
2026-05-09 07:39 28.81267 -14.87898 35059 ft 527 kts 24°
2026-05-09 07:40 28.87373 -14.83290 35058 ft 527 kts 24°
2026-05-09 07:40 28.93504 -14.78656 35059 ft 528 kts 24°
2026-05-09 07:41 28.99602 -14.74041 35053 ft 528 kts 24°
2026-05-09 07:41 29.05739 -14.69389 35044 ft 528 kts 24°
2026-05-09 07:42 29.11836 -14.64761 35053 ft 528 kts 24°
2026-05-09 07:42 29.17975 -14.60095 35053 ft 528 kts 24°
2026-05-09 07:43 29.24075 -14.55450 35046 ft 529 kts 24°
2026-05-09 07:43 29.30218 -14.50766 35046 ft 529 kts 24°
2026-05-09 07:44 29.36320 -14.46107 35046 ft 529 kts 24°
2026-05-09 07:44 29.42422 -14.41441 35043 ft 529 kts 24°
2026-05-09 07:45 29.48564 -14.36737 35044 ft 529 kts 24°
2026-05-09 07:45 29.54707 -14.32026 35040 ft 529 kts 24°
2026-05-09 07:46 29.60812 -14.27338 35038 ft 530 kts 24°
2026-05-09 07:46 29.66942 -14.22622 35037 ft 530 kts 24°
2026-05-09 07:47 29.73082 -14.17891 35035 ft 530 kts 24°
2026-05-09 07:47 29.79177 -14.13189 35032 ft 530 kts 24°
2026-05-09 07:48 29.85292 -14.08465 35033 ft 530 kts 24°
2026-05-09 07:48 29.91427 -14.03718 35033 ft 530 kts 24°
2026-05-09 07:49 29.97528 -13.98990 35038 ft 530 kts 24°
2026-05-09 07:49 30.02665 -13.95003 35020 ft 530 kts 24°
2026-05-09 07:50 30.08751 -13.90273 35026 ft 530 kts 24°
2026-05-09 07:50 30.14880 -13.85503 35028 ft 529 kts 24°
2026-05-09 07:51 30.20966 -13.80759 35028 ft 529 kts 24°
2026-05-09 07:51 30.27082 -13.75985 35026 ft 529 kts 24°
2026-05-09 07:52 30.33161 -13.71231 35025 ft 529 kts 24°
2026-05-09 07:52 30.39268 -13.66449 35021 ft 529 kts 24°
2026-05-09 07:53 30.45346 -13.61683 35023 ft 528 kts 24°
2026-05-09 07:53 30.51190 -13.57096 35014 ft 528 kts 24°
2026-05-09 07:54 30.57237 -13.52299 35019 ft 528 kts 25°
2026-05-09 07:54 30.63315 -13.47448 35010 ft 528 kts 25°
2026-05-09 07:55 30.69339 -13.42641 35009 ft 528 kts 24°
2026-05-09 07:55 30.75402 -13.37799 35007 ft 528 kts 24°
2026-05-09 07:56 30.81473 -13.32943 35004 ft 528 kts 24°
2026-05-09 07:56 30.87488 -13.28124 35005 ft 528 kts 25°
2026-05-09 07:57 30.93566 -13.23252 35003 ft 528 kts 24°
2026-05-09 07:57 30.99617 -13.18448 35002 ft 528 kts 24°
2026-05-09 07:58 31.05709 -13.13612 35003 ft 528 kts 24°
2026-05-09 07:58 31.11782 -13.08776 35005 ft 528 kts 24°
2026-05-09 07:59 31.17820 -13.03957 35002 ft 528 kts 24°
2026-05-09 07:59 31.23906 -12.99093 34996 ft 528 kts 24°
2026-05-09 08:00 31.29940 -12.94262 34996 ft 528 kts 24°
2026-05-09 08:00 31.36017 -12.89390 34997 ft 528 kts 24°
2026-05-09 08:01 31.42078 -12.84522 34998 ft 528 kts 24°
2026-05-09 08:01 31.48144 -12.79642 34996 ft 528 kts 24°
2026-05-09 08:02 31.54167 -12.74790 34996 ft 528 kts 24°
2026-05-09 08:02 31.60232 -12.69895 34990 ft 527 kts 24°
2026-05-09 08:03 31.66276 -12.65010 34986 ft 527 kts 25°
2026-05-09 08:03 31.72287 -12.60144 34986 ft 527 kts 25°
2026-05-09 08:04 31.78353 -12.55226 34980 ft 527 kts 25°
2026-05-09 08:04 31.84359 -12.50348 34981 ft 527 kts 25°
2026-05-09 08:05 31.90405 -12.45429 34988 ft 527 kts 25°
2026-05-09 08:05 31.96456 -12.40500 34981 ft 528 kts 25°
2026-05-09 08:06 32.02465 -12.35607 34978 ft 528 kts 25°
2026-05-09 08:06 32.08517 -12.30684 34980 ft 527 kts 25°
2026-05-09 08:07 32.14534 -12.25781 34968 ft 527 kts 25°
2026-05-09 08:07 32.20579 -12.20842 34969 ft 527 kts 25°
2026-05-09 08:08 32.26588 -12.15927 34974 ft 527 kts 26°
2026-05-09 08:08 32.32639 -12.10967 34975 ft 527 kts 26°
2026-05-09 08:09 32.38637 -12.06044 34975 ft 526 kts 26°
2026-05-09 08:09 32.44652 -12.01099 34969 ft 526 kts 26°
2026-05-09 08:10 32.50635 -11.96171 34966 ft 525 kts 26°
2026-05-09 08:10 32.56641 -11.91215 34964 ft 525 kts 26°
2026-05-09 08:11 32.62633 -11.86264 34964 ft 524 kts 26°
2026-05-09 08:11 32.68602 -11.81323 34960 ft 524 kts 26°
2026-05-09 08:12 32.77580 -11.73876 34955 ft 524 kts 27°
2026-05-09 08:12 32.83522 -11.68937 34952 ft 523 kts 27°
2026-05-09 08:13 32.89497 -11.63961 34951 ft 523 kts 27°
2026-05-09 08:13 32.95436 -11.59007 34946 ft 523 kts 27°
2026-05-09 08:14 33.01410 -11.54015 34943 ft 523 kts 27°
2026-05-09 08:14 33.07367 -11.49030 34943 ft 523 kts 27°
2026-05-09 08:15 33.13286 -11.44070 34945 ft 523 kts 27°
2026-05-09 08:15 33.19260 -11.39053 34945 ft 523 kts 27°
2026-05-09 08:16 33.25174 -11.34038 34927 ft 523 kts 27°
2026-05-09 08:16 33.31126 -11.28981 34932 ft 523 kts 27°
2026-05-09 08:17 33.37044 -11.23950 34930 ft 524 kts 27°
2026-05-09 08:17 33.42959 -11.18913 34928 ft 524 kts 27°
2026-05-09 08:18 33.48910 -11.13836 34926 ft 524 kts 27°
2026-05-09 08:18 33.54836 -11.08772 34928 ft 524 kts 27°
2026-05-09 08:19 33.60793 -11.03672 34922 ft 524 kts 27°
2026-05-09 08:19 33.66711 -10.98597 34917 ft 525 kts 27°
2026-05-09 08:20 33.72669 -10.93480 34917 ft 525 kts 27°
2026-05-09 08:20 33.78623 -10.88356 34913 ft 525 kts 27°
2026-05-09 08:21 33.84543 -10.83254 34911 ft 525 kts 27°
2026-05-09 08:21 33.90459 -10.78145 34919 ft 525 kts 27°
2026-05-09 08:22 33.96329 -10.73067 34900 ft 525 kts 27°
2026-05-09 08:22 34.02270 -10.67919 34908 ft 525 kts 27°
2026-05-09 08:23 34.08175 -10.62794 34909 ft 525 kts 27°
2026-05-09 08:23 34.14109 -10.57634 34897 ft 525 kts 27°
2026-05-09 08:24 34.20000 -10.52502 34896 ft 525 kts 27°
2026-05-09 08:24 34.25919 -10.47337 34895 ft 524 kts 27°
2026-05-09 08:25 34.31837 -10.42164 34890 ft 524 kts 27°
2026-05-09 08:25 34.37756 -10.36981 34888 ft 524 kts 27°
2026-05-09 08:26 34.43642 -10.31817 34882 ft 524 kts 27°
2026-05-09 08:26 34.49556 -10.26620 34882 ft 524 kts 27°
2026-05-09 08:27 34.55442 -10.21438 34882 ft 524 kts 27°
2026-05-09 08:27 34.61356 -10.16224 34880 ft 524 kts 27°
2026-05-09 08:28 34.67247 -10.11037 34878 ft 523 kts 27°
2026-05-09 08:28 34.73133 -10.05867 34876 ft 523 kts 27°
2026-05-09 08:29 34.79040 -10.00667 34868 ft 523 kts 27°
2026-05-09 08:29 34.84908 -9.95488 34877 ft 523 kts 28°
2026-05-09 08:30 34.90794 -9.90283 34869 ft 522 kts 28°
2026-05-09 08:30 34.96651 -9.85095 34857 ft 522 kts 28°
2026-05-09 08:31 35.02542 -9.79867 34863 ft 522 kts 28°
2026-05-09 08:31 35.08380 -9.74677 34860 ft 521 kts 28°
2026-05-09 08:32 35.14260 -9.69441 34861 ft 521 kts 28°
2026-05-09 08:33 35.23025 -9.61616 34862 ft 521 kts 29°
2026-05-09 08:33 35.28885 -9.56373 34859 ft 521 kts 29°
2026-05-09 08:34 35.34701 -9.51160 34850 ft 520 kts 29°
2026-05-09 08:34 35.40566 -9.45893 34853 ft 520 kts 30°
2026-05-09 08:35 35.46379 -9.40664 34847 ft 520 kts 30°
2026-05-09 08:35 35.52186 -9.35430 34847 ft 520 kts 30°
2026-05-09 08:36 35.58017 -9.30165 34847 ft 520 kts 30°
2026-05-09 08:36 35.63857 -9.24882 34848 ft 520 kts 30°
2026-05-09 08:37 35.68708 -9.20487 34845 ft 520 kts 31°
2026-05-09 08:37 35.75482 -9.14337 34839 ft 520 kts 31°
2026-05-09 08:38 35.81286 -9.09058 34826 ft 520 kts 31°
2026-05-09 08:38 35.86158 -9.04619 34841 ft 520 kts 31°
2026-05-09 08:39 35.91948 -8.99334 34831 ft 520 kts 31°
2026-05-09 08:39 35.97761 -8.94021 34832 ft 520 kts 31°
2026-05-09 08:40 36.03586 -8.88679 34829 ft 520 kts 32°
2026-05-09 08:40 36.09370 -8.83366 34828 ft 520 kts 32°
2026-05-09 08:41 36.15189 -8.78012 34832 ft 520 kts 32°
2026-05-09 08:41 36.20984 -8.72670 34827 ft 521 kts 32°
2026-05-09 08:42 36.26802 -8.67296 34829 ft 521 kts 32°
2026-05-09 08:42 36.32580 -8.61949 34826 ft 521 kts 32°
2026-05-09 08:43 36.38366 -8.56585 34823 ft 521 kts 32°
2026-05-09 08:43 36.44177 -8.51187 34825 ft 521 kts 32°
2026-05-09 08:44 36.50003 -8.45765 34820 ft 522 kts 32°
2026-05-09 08:44 36.55792 -8.40367 34822 ft 522 kts 32°
2026-05-09 08:45 36.61619 -8.34923 34822 ft 522 kts 32°
2026-05-09 08:45 36.67399 -8.29513 34819 ft 522 kts 32°
2026-05-09 08:46 36.73225 -8.24049 34819 ft 522 kts 32°
2026-05-09 08:46 36.79003 -8.18620 34806 ft 523 kts 32°
2026-05-09 08:47 36.84819 -8.13143 34798 ft 523 kts 32°
2026-05-09 08:47 36.90635 -8.07657 34785 ft 523 kts 32°
2026-05-09 08:48 36.96418 -8.02191 34775 ft 523 kts 33°
2026-05-09 08:48 37.02611 -7.97578 34772 ft 512 kts 18°
2026-05-09 08:49 37.09320 -7.94874 34772 ft 503 kts
2026-05-09 08:49 37.16075 -7.92652 34779 ft 504 kts
2026-05-09 08:50 37.22874 -7.90384 34777 ft 504 kts
2026-05-09 08:50 37.29625 -7.88134 34784 ft 505 kts
2026-05-09 08:51 37.36344 -7.85895 34783 ft 505 kts
2026-05-09 08:51 37.43119 -7.83633 34782 ft 505 kts
2026-05-09 08:52 37.49923 -7.81356 34778 ft 506 kts
2026-05-09 08:52 37.56703 -7.79084 34773 ft 506 kts
2026-05-09 08:53 37.63523 -7.76794 34777 ft 506 kts
2026-05-09 08:53 37.70346 -7.74498 34769 ft 507 kts
2026-05-09 08:54 37.77129 -7.72211 34774 ft 507 kts
2026-05-09 08:54 37.83965 -7.69903 34771 ft 507 kts
2026-05-09 08:55 37.90768 -7.67601 34766 ft 508 kts
2026-05-09 08:55 37.97615 -7.65280 34763 ft 509 kts
2026-05-09 08:56 38.04470 -7.62952 34762 ft 509 kts
2026-05-09 08:56 38.11289 -7.60596 34762 ft 511 kts 11°
2026-05-09 08:57 38.18097 -7.57810 34765 ft 513 kts 13°
2026-05-09 08:57 38.24842 -7.55007 34777 ft 513 kts 13°
2026-05-09 08:58 38.31669 -7.52221 34775 ft 514 kts 13°
2026-05-09 08:58 38.38464 -7.49459 34778 ft 515 kts 13°
2026-05-09 08:59 38.45322 -7.46666 34778 ft 515 kts 13°
2026-05-09 08:59 38.52115 -7.43892 34780 ft 516 kts 14°
2026-05-09 09:00 38.58974 -7.41086 34789 ft 516 kts 14°
2026-05-09 09:00 38.65792 -7.38292 34788 ft 516 kts 14°
2026-05-09 09:01 38.72653 -7.35474 34786 ft 517 kts 14°
2026-05-09 09:01 38.79485 -7.32662 34797 ft 517 kts 14°
2026-05-09 09:02 38.86348 -7.29832 34794 ft 517 kts 14°
2026-05-09 09:02 38.93186 -7.27006 34798 ft 517 kts 15°
2026-05-09 09:03 39.00060 -7.24160 34794 ft 517 kts 15°
2026-05-09 09:03 39.06886 -7.21328 34794 ft 517 kts 15°
2026-05-09 09:04 39.13751 -7.18474 34792 ft 517 kts 15°
2026-05-09 09:04 39.20566 -7.15634 34803 ft 517 kts 15°
2026-05-09 09:05 39.27429 -7.12770 34809 ft 517 kts 15°
2026-05-09 09:05 39.34291 -7.09900 34806 ft 517 kts 15°
2026-05-09 09:06 39.41106 -7.07043 34811 ft 517 kts 16°
2026-05-09 09:06 39.47987 -7.04152 34810 ft 517 kts 16°
2026-05-09 09:07 39.54798 -7.01285 34813 ft 517 kts 16°
2026-05-09 09:07 39.61647 -6.98396 34814 ft 517 kts 16°
2026-05-09 09:08 39.68470 -6.95512 34815 ft 517 kts 17°
2026-05-09 09:08 39.75333 -6.92604 34823 ft 517 kts 17°
2026-05-09 09:09 39.82136 -6.89717 34825 ft 517 kts 17°
2026-05-09 09:09 39.88834 -6.86287 34830 ft 517 kts 27°
2026-05-09 09:10 39.94985 -6.81478 34829 ft 517 kts 32°
2026-05-09 09:10 40.01124 -6.76576 34838 ft 517 kts 32°
2026-05-09 09:11 40.07268 -6.71661 34840 ft 517 kts 32°
2026-05-09 09:11 40.13370 -6.66758 34845 ft 517 kts 32°
2026-05-09 09:12 40.19523 -6.61799 34845 ft 517 kts 32°
2026-05-09 09:12 40.25625 -6.56871 34843 ft 517 kts 32°
2026-05-09 09:13 40.31749 -6.51915 34851 ft 516 kts 33°
2026-05-09 09:13 40.37844 -6.46972 34856 ft 517 kts 33°
2026-05-09 09:14 40.43969 -6.41994 34852 ft 517 kts 33°
2026-05-09 09:14 40.50060 -6.37032 34847 ft 517 kts 33°
2026-05-09 09:15 40.56194 -6.32024 34844 ft 517 kts 33°
2026-05-09 09:15 40.62441 -6.27425 34833 ft 518 kts 29°
2026-05-09 09:16 40.68832 -6.23026 34832 ft 518 kts 29°
2026-05-09 09:16 40.78450 -6.16366 34832 ft 520 kts 30°
2026-05-09 09:17 40.84836 -6.11932 34832 ft 522 kts 30°
2026-05-09 09:17 40.91288 -6.07444 34835 ft 523 kts 30°
2026-05-09 09:18 40.97701 -6.02973 34837 ft 524 kts 30°
2026-05-09 09:18 41.04169 -5.98453 34839 ft 525 kts 30°
2026-05-09 09:19 41.10620 -5.93937 34840 ft 527 kts 31°
2026-05-09 09:19 41.17127 -5.89370 34838 ft 528 kts 31°
2026-05-09 09:20 41.23651 -5.84783 34839 ft 530 kts 31°
2026-05-09 09:20 41.30155 -5.80198 34845 ft 532 kts 31°
2026-05-09 09:21 41.36711 -5.75565 34854 ft 533 kts 31°
2026-05-09 09:21 41.43237 -5.70944 34854 ft 534 kts 32°
2026-05-09 09:22 41.49817 -5.66273 34857 ft 535 kts 32°
2026-05-09 09:22 41.56576 -5.61973 34849 ft 540 kts 26°
2026-05-09 09:23 41.63478 -5.58108 34855 ft 541 kts 26°
2026-05-09 09:23 41.69129 -5.54921 34855 ft 542 kts 26°
2026-05-09 09:24 41.75487 -5.51325 34856 ft 543 kts 26°
2026-05-09 09:24 41.82475 -5.47363 34877 ft 544 kts 26°
2026-05-09 09:25 41.88293 -5.44057 34872 ft 545 kts 26°
2026-05-09 09:25 41.96419 -5.39428 34869 ft 545 kts 26°
2026-05-09 09:26 42.02245 -5.36101 34872 ft 545 kts 26°
2026-05-09 09:26 42.09252 -5.32091 34883 ft 545 kts 26°
2026-05-09 09:27 42.16208 -5.28100 34881 ft 546 kts 26°
2026-05-09 09:27 42.23223 -5.24066 34880 ft 546 kts 26°
2026-05-09 09:28 42.30178 -5.20057 34886 ft 546 kts 26°
2026-05-09 09:28 42.37176 -5.16015 34889 ft 546 kts 26°
2026-05-09 09:29 42.44175 -5.11963 34886 ft 546 kts 26°
2026-05-09 09:29 42.51127 -5.07928 34892 ft 546 kts 26°
2026-05-09 09:30 42.58136 -5.03848 34890 ft 546 kts 26°
2026-05-09 09:30 42.65100 -4.99785 34886 ft 547 kts 26°
2026-05-09 09:31 42.72100 -4.95690 34894 ft 547 kts 26°
2026-05-09 09:32 42.82547 -4.89558 34892 ft 548 kts 26°
2026-05-09 09:32 42.89561 -4.85430 34879 ft 547 kts 26°
2026-05-09 09:33 42.96517 -4.81325 34871 ft 547 kts 26°
2026-05-09 09:33 43.03508 -4.77191 34861 ft 546 kts 26°
2026-05-09 09:34 43.10468 -4.73065 34847 ft 546 kts 26°
2026-05-09 09:34 43.17415 -4.68936 34849 ft 546 kts 26°
2026-05-09 09:36 43.45414 -4.52184 34839 ft 550 kts 26°
2026-05-09 09:37 43.52392 -4.47984 34835 ft 550 kts 26°
2026-05-09 09:37 43.59428 -4.43738 34839 ft 550 kts 26°
2026-05-09 09:38 43.66420 -4.39508 34837 ft 551 kts 26°
2026-05-09 09:38 43.73459 -4.35240 34838 ft 551 kts 26°
2026-05-09 09:39 43.80442 -4.30994 34840 ft 551 kts 26°
2026-05-09 09:39 43.87465 -4.26712 34836 ft 550 kts 25°
2026-05-09 09:40 43.94490 -4.22418 34837 ft 550 kts 25°
2026-05-09 09:40 44.01459 -4.18147 34839 ft 549 kts 25°
2026-05-09 09:41 44.08427 -4.13867 34844 ft 548 kts 25°
2026-05-09 09:41 44.15420 -4.09559 34841 ft 547 kts 25°
2026-05-09 09:42 44.22364 -4.05270 34841 ft 547 kts 25°
2026-05-09 09:42 44.29290 -4.00982 34846 ft 546 kts 25°
2026-05-09 09:43 44.36083 -3.96224 34842 ft 544 kts 32°
2026-05-09 09:43 44.42643 -3.91018 34849 ft 544 kts 31°
2026-05-09 09:44 44.49235 -3.85807 34848 ft 544 kts 31°
2026-05-09 09:44 44.55824 -3.80574 34851 ft 544 kts 31°
2026-05-09 09:45 44.61759 -3.75844 34854 ft 544 kts 31°
2026-05-09 09:45 44.68351 -3.70576 35042 ft 544 kts 31°
2026-05-09 09:45 44.71630 -3.67949 35401 ft 540 kts 31°
2026-05-09 09:46 44.74878 -3.65346 35757 ft 536 kts 31°
2026-05-09 09:46 44.78124 -3.62740 36079 ft 532 kts 31°
2026-05-09 09:46 44.81289 -3.60196 36397 ft 529 kts 31°
2026-05-09 09:46 44.84480 -3.57628 36725 ft 525 kts 31°
2026-05-09 09:47 44.87646 -3.55076 37039 ft 522 kts 31°
2026-05-09 09:47 44.90791 -3.52539 37371 ft 519 kts 31°
2026-05-09 09:47 44.93914 -3.50016 37695 ft 515 kts 31°
2026-05-09 09:47 44.97033 -3.47493 37869 ft 513 kts 31°
2026-05-09 09:48 45.00125 -3.44989 37874 ft 511 kts 31°
2026-05-09 09:48 45.06157 -3.40101 37874 ft 510 kts 30°
2026-05-09 09:49 45.12544 -3.35660 37878 ft 511 kts 26°
2026-05-09 09:49 45.18955 -3.31289 37879 ft 510 kts 26°
2026-05-09 09:50 45.25346 -3.26892 37884 ft 509 kts 26°
2026-05-09 09:50 45.31679 -3.22513 37886 ft 508 kts 26°
2026-05-09 09:51 45.38058 -3.18089 37888 ft 508 kts 26°
2026-05-09 09:51 45.44366 -3.13705 37893 ft 507 kts 26°
2026-05-09 09:52 45.50715 -3.09280 37901 ft 507 kts 26°
2026-05-09 09:52 45.57060 -3.04847 37903 ft 506 kts 26°
2026-05-09 09:53 45.63343 -3.00447 37906 ft 505 kts 26°
2026-05-09 09:53 45.69654 -2.96018 37911 ft 504 kts 26°
2026-05-09 09:54 45.75960 -2.91580 37911 ft 504 kts 26°
2026-05-09 09:54 45.82218 -2.87165 37911 ft 503 kts 26°
2026-05-09 09:55 45.88508 -2.82715 37919 ft 502 kts 26°
2026-05-09 09:55 45.94746 -2.78292 37919 ft 502 kts 26°
2026-05-09 09:56 46.01024 -2.73829 37919 ft 502 kts 26°
2026-05-09 09:56 46.07294 -2.69359 37917 ft 502 kts 26°
2026-05-09 09:57 46.13539 -2.64896 37916 ft 503 kts 27°
2026-05-09 09:57 46.19815 -2.60400 37928 ft 503 kts 27°
2026-05-09 09:58 46.26057 -2.55917 37930 ft 503 kts 27°
2026-05-09 09:58 46.32330 -2.51399 37929 ft 503 kts 27°
2026-05-09 09:59 46.38609 -2.46866 37934 ft 503 kts 27°
2026-05-09 09:59 46.44843 -2.42354 37936 ft 503 kts 27°
2026-05-09 10:00 46.51121 -2.37798 37938 ft 503 kts 27°
2026-05-09 10:00 46.57352 -2.33264 37954 ft 503 kts 27°
2026-05-09 10:01 46.63616 -2.28695 37957 ft 502 kts 27°
2026-05-09 10:01 46.69884 -2.24110 37960 ft 502 kts 27°
2026-05-09 10:02 46.76097 -2.19553 37962 ft 501 kts 27°
2026-05-09 10:02 46.82338 -2.14965 37960 ft 501 kts 27°
2026-05-09 10:03 46.88565 -2.10375 37959 ft 501 kts 27°
2026-05-09 10:03 46.94749 -2.05804 37958 ft 500 kts 27°
2026-05-09 10:04 47.00356 -1.99865 37955 ft 496 kts 47°
2026-05-09 10:04 47.04407 -1.91834 37959 ft 491 kts 64°
2026-05-09 10:05 47.07737 -1.83065 37962 ft 492 kts 63°
2026-05-09 10:05 47.11128 -1.74284 37963 ft 492 kts 63°
2026-05-09 10:06 47.14470 -1.65562 37965 ft 492 kts 63°
2026-05-09 10:06 47.18190 -1.57072 37966 ft 495 kts 55°
2026-05-09 10:07 47.22276 -1.48960 37963 ft 495 kts 56°
2026-05-09 10:07 47.26351 -1.40757 37961 ft 496 kts 56°
2026-05-09 10:08 47.30427 -1.32537 37964 ft 496 kts 56°
2026-05-09 10:08 47.34494 -1.24318 37969 ft 496 kts 56°
2026-05-09 10:09 47.38539 -1.16119 37963 ft 496 kts 56°
2026-05-09 10:09 47.42583 -1.07900 37964 ft 496 kts 56°
2026-05-09 10:10 47.46644 -0.99621 37966 ft 496 kts 56°
2026-05-09 10:10 47.50694 -0.91337 37960 ft 496 kts 56°
2026-05-09 10:11 47.54152 -0.82614 37963 ft 493 kts 67°
2026-05-09 10:11 47.56615 -0.73170 37911 ft 491 kts 73°
2026-05-09 10:11 47.57778 -0.68411 37657 ft 491 kts 72°
2026-05-09 10:12 47.58939 -0.63708 37389 ft 489 kts 72°
2026-05-09 10:12 47.60102 -0.58981 37125 ft 488 kts 72°
2026-05-09 10:12 47.61254 -0.54249 36850 ft 486 kts 72°
2026-05-09 10:12 47.62396 -0.49525 36593 ft 485 kts 73°
2026-05-09 10:13 47.63529 -0.44820 36328 ft 484 kts 73°
2026-05-09 10:13 47.64660 -0.40107 35987 ft 484 kts 73°
2026-05-09 10:13 47.65405 -0.37000 35740 ft 483 kts 73°
2026-05-09 10:13 47.66893 -0.30783 35244 ft 480 kts 73°
2026-05-09 10:14 47.68008 -0.26115 34868 ft 477 kts 72°
2026-05-09 10:14 47.69113 -0.21477 34511 ft 475 kts 72°
2026-05-09 10:14 47.69841 -0.18415 34280 ft 474 kts 72°
2026-05-09 10:14 47.70936 -0.13804 33908 ft 472 kts 72°
2026-05-09 10:15 47.72023 -0.09216 33493 ft 470 kts 72°
2026-05-09 10:15 47.73104 -0.04645 33084 ft 466 kts 72°
2026-05-09 10:15 47.74177 -0.00100 32689 ft 462 kts 72°
2026-05-09 10:15 47.75234 0.04385 32263 ft 457 kts 72°
2026-05-09 10:16 47.76266 0.08777 31771 ft 454 kts 72°
2026-05-09 10:16 47.77302 0.13197 31296 ft 450 kts 72°
2026-05-09 10:16 47.78329 0.17585 30819 ft 447 kts 72°
2026-05-09 10:16 47.79347 0.21926 30353 ft 443 kts 72°
2026-05-09 10:17 47.80697 0.26029 29862 ft 441 kts 57°
2026-05-09 10:17 47.82505 0.29325 29362 ft 437 kts 43°
2026-05-09 10:17 47.84889 0.32077 28833 ft 431 kts 32°
2026-05-09 10:17 47.87379 0.34543 28322 ft 428 kts 32°
2026-05-09 10:18 47.89810 0.37062 27798 ft 424 kts 38°
2026-05-09 10:18 47.91910 0.40119 27314 ft 419 kts 46°
2026-05-09 10:18 47.93871 0.43236 26850 ft 414 kts 46°
2026-05-09 10:18 47.95835 0.46349 26402 ft 410 kts 46°
2026-05-09 10:19 47.97786 0.49436 25934 ft 405 kts 46°
2026-05-09 10:19 47.99713 0.52481 25494 ft 400 kts 46°
2026-05-09 10:19 48.01628 0.55510 25045 ft 399 kts 46°
2026-05-09 10:19 48.03507 0.58484 24623 ft 397 kts 46°
2026-05-09 10:20 48.05431 0.61423 24177 ft 392 kts 40°
2026-05-09 10:20 48.07697 0.63651 23778 ft 388 kts 26°
2026-05-09 10:20 48.10115 0.65463 23329 ft 387 kts 24°
2026-05-09 10:20 48.12530 0.67222 22823 ft 383 kts 25°
2026-05-09 10:21 48.14875 0.68962 22363 ft 378 kts 25°
2026-05-09 10:21 48.17218 0.70745 21911 ft 377 kts 26°
2026-05-09 10:21 48.19547 0.72546 21473 ft 376 kts 26°
2026-05-09 10:21 48.21859 0.74347 21030 ft 371 kts 26°
2026-05-09 10:22 48.24146 0.76136 20601 ft 369 kts 26°
2026-05-09 10:22 48.26418 0.77917 20170 ft 366 kts 26°
2026-05-09 10:22 48.28642 0.79664 19752 ft 363 kts 26°
2026-05-09 10:22 48.30889 0.81429 19343 ft 361 kts 26°
2026-05-09 10:23 48.33104 0.83218 18930 ft 359 kts 30°
2026-05-09 10:23 48.35064 0.85456 18529 ft 357 kts 43°
2026-05-09 10:23 48.36690 0.88257 18115 ft 355 kts 54°
2026-05-09 10:23 48.38142 0.91244 17653 ft 353 kts 54°
2026-05-09 10:24 48.39614 0.94191 17206 ft 349 kts 53°
2026-05-09 10:24 48.41080 0.97086 16763 ft 347 kts 53°
2026-05-09 10:24 48.42544 0.99969 16324 ft 345 kts 53°
2026-05-09 10:24 48.43994 1.02825 15898 ft 342 kts 53°
2026-05-09 10:25 48.45431 1.05663 15469 ft 339 kts 53°
2026-05-09 10:25 48.46855 1.08489 15042 ft 336 kts 53°
2026-05-09 10:25 48.48249 1.11257 14619 ft 334 kts 53°
2026-05-09 10:25 48.49648 1.14034 14217 ft 332 kts 54°
2026-05-09 10:26 48.51045 1.16813 13818 ft 330 kts 54°
2026-05-09 10:26 48.52428 1.19568 13376 ft 328 kts 54°
2026-05-09 10:26 48.53797 1.22294 12909 ft 323 kts 54°
2026-05-09 10:26 48.55146 1.24985 12463 ft 320 kts 54°
2026-05-09 10:27 48.56479 1.27640 12029 ft 320 kts 54°
2026-05-09 10:27 48.57813 1.30307 11611 ft 315 kts 54°
2026-05-09 10:27 48.59121 1.32922 11234 ft 307 kts 54°
2026-05-09 10:27 48.60393 1.35468 10857 ft 299 kts 53°
2026-05-09 10:28 48.61630 1.37948 10488 ft 293 kts 53°
2026-05-09 10:28 48.62851 1.40401 10135 ft 297 kts 53°
2026-05-09 10:28 48.64097 1.42907 9764 ft 297 kts 53°
2026-05-09 10:28 48.65331 1.45389 9367 ft 293 kts 53°
2026-05-09 10:29 48.66550 1.47834 8967 ft 290 kts 53°
2026-05-09 10:29 48.67765 1.50266 8570 ft 287 kts 53°
2026-05-09 10:29 48.68946 1.52644 8195 ft 286 kts 54°
2026-05-09 10:29 48.70140 1.55062 7802 ft 286 kts 54°
2026-05-09 10:30 48.71323 1.57456 7441 ft 281 kts 54°
2026-05-09 10:30 48.72488 1.59819 7075 ft 279 kts 54°
2026-05-09 10:30 48.73656 1.62177 6714 ft 278 kts 54°
2026-05-09 10:30 48.74811 1.64539 6332 ft 276 kts 54°
2026-05-09 10:31 48.75938 1.66832 5959 ft 274 kts 54°
2026-05-09 10:31 48.77083 1.69142 5574 ft 272 kts 54°
2026-05-09 10:31 48.78218 1.71421 5188 ft 269 kts 54°
2026-05-09 10:31 48.79343 1.73687 4865 ft 268 kts 54°
2026-05-09 10:32 48.80457 1.75937 4443 ft 264 kts 54°
2026-05-09 10:32 48.81565 1.78156 4116 ft 263 kts 53°
2026-05-09 10:32 48.82647 1.80299 4015 ft 255 kts 54°
2026-05-09 10:32 48.83708 1.82488 4041 ft 259 kts 55°
2026-05-09 10:33 48.84742 1.84631 4038 ft 257 kts 54°
2026-05-09 10:33 48.85807 1.86814 4014 ft 256 kts 55°
2026-05-09 10:33 48.86853 1.88961 3995 ft 253 kts 55°
2026-05-09 10:33 48.87898 1.91100 4005 ft 254 kts 55°
2026-05-09 10:34 48.88940 1.93239 4059 ft 248 kts 55°
2026-05-09 10:34 48.90779 1.97049 3998 ft 253 kts 55°
2026-05-09 10:34 48.91820 1.99191 4017 ft 251 kts 54°
2026-05-09 10:35 48.92866 2.01334 3992 ft 254 kts 55°
2026-05-09 10:35 48.93896 2.03447 4016 ft 251 kts 55°
2026-05-09 10:35 48.94946 2.05596 4042 ft 253 kts 55°
2026-05-09 10:35 48.95997 2.07744 4000 ft 252 kts 55°
2026-05-09 10:36 48.97031 2.09860 4015 ft 249 kts 54°
2026-05-09 10:36 48.98096 2.11911 4044 ft 240 kts 52°
2026-05-09 10:36 48.99112 2.13843 4002 ft 224 kts 53°
2026-05-09 10:36 48.99865 2.15803 4038 ft 206 kts 69°
2026-05-09 10:37 49.00217 2.17870 4017 ft 207 kts 81°
2026-05-09 10:37 49.00383 2.20058 4012 ft 206 kts 88°
2026-05-09 10:37 49.00476 2.22216 4033 ft 204 kts 85°
2026-05-09 10:37 49.00609 2.24357 3878 ft 200 kts 86°
2026-05-09 10:38 49.00710 2.26428 3586 ft 193 kts 86°
2026-05-09 10:38 49.00830 2.28426 3326 ft 186 kts 86°
2026-05-09 10:38 49.00923 2.30326 3085 ft 173 kts 86°
2026-05-09 10:38 49.01035 2.32074 2842 ft 163 kts 83°
2026-05-09 10:39 49.01111 2.33712 2651 ft 147 kts 88°
2026-05-09 10:39 49.01192 2.35189 2448 ft 134 kts 84°
2026-05-09 10:39 49.01281 2.36628 2283 ft 139 kts 88°
2026-05-09 10:39 49.01341 2.38085 2081 ft 134 kts 85°
2026-05-09 10:40 49.01427 2.39515 1890 ft 139 kts 86°
2026-05-09 10:40 49.01501 2.40966 1706 ft 133 kts 84°
2026-05-09 10:40 49.01575 2.42354 1551 ft 131 kts 86°
2026-05-09 10:40 49.01653 2.43755 1355 ft 137 kts 86°
2026-05-09 10:41 49.01728 2.45199 1176 ft 136 kts 84°
2026-05-09 10:41 49.01805 2.46615 1000 ft 138 kts 84°
2026-05-09 10:41 49.01886 2.48095 779 ft 139 kts 86°
2026-05-09 10:41 49.01955 2.49492 621 ft 132 kts 84°
2026-05-09 10:42 49.02039 2.50913 474 ft 136 kts 85°
2026-05-09 10:42 49.02120 2.52320 392 ft 128 kts 85°
2026-05-09 10:42 49.02175 2.53370 392 ft 71 kts 86°
2026-05-09 10:42 49.02199 2.53815 393 ft 13 kts 85°
2026-05-09 10:43 49.02199 2.53945 394 ft 13 kts 96°
2026-05-09 10:43 49.02176 2.54076 389 ft 12 kts 105°
2026-05-09 10:43 49.02154 2.54207 394 ft 13 kts 104°
2026-05-09 10:43 49.02130 2.54346 394 ft 14 kts 105°
2026-05-09 10:44 49.02103 2.54491 392 ft 15 kts 105°
2026-05-09 10:44 49.02075 2.54646 394 ft 16 kts 105°
2026-05-09 10:44 49.02058 2.54741 395 ft 0 kts 105°